Time,TemperatureF,DewpointF,PressureIn,WindDirection,WindDirectionDegrees,WindSpeedMPH,WindSpeedGustMPH,Humidity,HourlyPrecipIn,Conditions,Clouds,dailyrainin,SoftwareType,DateUTC
2013-05-10 00:00:00,54.3,21.1,30.09,SSW,194,6.3,7.6,27,0.00,,---,0.00,VWS V14.01,2013-05-10 06:00:00,
2013-05-10 00:01:00,54.3,21.1,30.09,South,191,5.4,8.3,27,0.00,,---,0.00,VWS V14.01,2013-05-10 06:01:00,
2013-05-10 00:02:00,54.3,21.1,30.09,SSW,199,4.0,8.3,27,0.00,,---,0.00,VWS V14.01,2013-05-10 06:02:00,
2013-05-10 00:05:00,54.0,20.8,30.09,SSW,194,5.4,8.3,27,0.00,,---,0.00,VWS V14.01,2013-05-10 06:05:00,
2013-05-10 00:06:00,54.0,20.8,30.09,SSW,200,6.7,8.3,27,0.00,,---,0.00,VWS V14.01,2013-05-10 06:06:00,
2013-05-10 00:07:00,54.0,20.8,30.09,SSW,196,5.8,8.7,27,0.00,,---,0.00,VWS V14.01,2013-05-10 06:07:00,
2013-05-10 00:10:00,53.6,20.5,30.09,SSW,195,7.6,8.7,27,0.00,,---,0.00,VWS V14.01,2013-05-10 06:10:00,
2013-05-10 00:11:00,53.6,20.5,30.09,South,190,6.3,8.7,27,0.00,,---,0.00,VWS V14.01,2013-05-10 06:11:00,
2013-05-10 00:12:00,53.6,20.5,30.09,SSW,202,5.4,8.7,27,0.00,,---,0.00,VWS V14.01,2013-05-10 06:12:00,
2013-05-10 00:13:00,53.6,20.5,30.09,SSW,193,8.7,8.7,27,0.00,,---,0.00,VWS V14.01,2013-05-10 06:13:00,
2013-05-10 00:15:00,53.6,20.5,30.09,SSW,195,6.3,6.3,27,0.00,,---,0.00,VWS V14.01,2013-05-10 06:15:00,
2013-05-10 00:16:00,53.4,21.1,30.09,SSW,200,6.3,6.3,28,0.00,,---,0.00,VWS V14.01,2013-05-10 06:16:00,
2013-05-10 00:17:00,53.4,21.1,30.09,South,190,6.3,8.3,28,0.00,,---,0.00,VWS V14.01,2013-05-10 06:17:00,
2013-05-10 00:18:00,53.4,21.1,30.09,SSW,200,6.3,8.3,28,0.00,,---,0.00,VWS V14.01,2013-05-10 06:18:00,
2013-05-10 00:21:00,53.1,20.8,30.09,SSW,199,6.3,8.7,28,0.00,,---,0.00,VWS V14.01,2013-05-10 06:21:00,
2013-05-10 00:22:00,53.1,20.8,30.09,South,190,6.3,8.7,28,0.00,,---,0.00,VWS V14.01,2013-05-10 06:22:00,
2013-05-10 00:23:00,52.9,20.7,30.09,SSW,210,5.8,8.7,28,0.00,,---,0.00,VWS V14.01,2013-05-10 06:23:00,
2013-05-10 00:26:00,52.7,20.5,30.09,SSW,198,5.4,8.7,28,0.00,,---,0.00,VWS V14.01,2013-05-10 06:26:00,
2013-05-10 00:27:00,52.7,20.5,30.09,SSW,195,5.8,8.7,28,0.00,,---,0.00,VWS V14.01,2013-05-10 06:27:00,
2013-05-10 00:28:00,52.7,20.5,30.09,SSW,194,5.4,8.7,28,0.00,,---,0.00,VWS V14.01,2013-05-10 06:28:00,
2013-05-10 00:31:00,52.7,21.4,30.09,SSW,202,7.6,8.3,29,0.00,,---,0.00,VWS V14.01,2013-05-10 06:31:00,
2013-05-10 00:32:00,52.7,20.5,30.09,SSW,194,6.3,8.3,28,0.00,,---,0.00,VWS V14.01,2013-05-10 06:32:00,
2013-05-10 00:33:00,52.7,20.5,30.09,SSW,195,5.8,8.3,28,0.00,,---,0.00,VWS V14.01,2013-05-10 06:33:00,
2013-05-10 00:34:00,52.7,21.4,30.09,SSW,201,6.3,8.3,29,0.00,,---,0.00,VWS V14.01,2013-05-10 06:34:00,
2013-05-10 00:36:00,52.7,21.4,30.09,South,191,4.0,8.3,29,0.00,,---,0.00,VWS V14.01,2013-05-10 06:36:00,
2013-05-10 00:37:00,52.7,21.4,30.09,South,191,4.0,8.3,29,0.00,,---,0.00,VWS V14.01,2013-05-10 06:37:00,
2013-05-10 00:38:00,52.7,21.4,30.09,South,191,6.3,8.3,29,0.00,,---,0.00,VWS V14.01,2013-05-10 06:38:00,
2013-05-10 00:39:00,52.7,21.4,30.09,SSW,200,6.3,8.3,29,0.00,,---,0.00,VWS V14.01,2013-05-10 06:39:00,
2013-05-10 00:42:00,52.5,21.2,30.09,SSW,192,4.9,8.3,29,0.00,,---,0.00,VWS V14.01,2013-05-10 06:42:00,
2013-05-10 00:43:00,52.5,21.2,30.09,SSW,199,5.8,8.3,29,0.00,,---,0.00,VWS V14.01,2013-05-10 06:43:00,
2013-05-10 00:44:00,52.5,21.2,30.09,SSW,194,5.8,8.3,29,0.00,,---,0.00,VWS V14.01,2013-05-10 06:44:00,
2013-05-10 00:47:00,52.3,21.0,30.09,South,190,5.8,5.8,29,0.00,,---,0.00,VWS V14.01,2013-05-10 06:47:00,
2013-05-10 00:48:00,52.3,21.0,30.09,SSW,195,5.4,5.8,29,0.00,,---,0.00,VWS V14.01,2013-05-10 06:48:00,
2013-05-10 00:49:00,52.3,21.0,30.09,SSW,196,4.9,5.8,29,0.00,,---,0.00,VWS V14.01,2013-05-10 06:49:00,
2013-05-10 00:52:00,52.3,21.0,30.09,SSW,200,5.8,6.3,29,0.00,,---,0.00,VWS V14.01,2013-05-10 06:52:00,
2013-05-10 00:53:00,52.3,21.0,30.09,SSW,201,5.4,6.3,29,0.00,,---,0.00,VWS V14.01,2013-05-10 06:53:00,
2013-05-10 00:54:00,52.5,21.2,30.09,SSW,195,4.9,6.3,29,0.00,,---,0.00,VWS V14.01,2013-05-10 06:54:00,
2013-05-10 00:57:00,52.3,21.0,30.09,SSW,196,3.6,6.3,29,0.00,,---,0.00,VWS V14.01,2013-05-10 06:57:00,
2013-05-10 00:58:00,52.3,21.0,30.09,SSW,202,0.0,6.3,29,0.00,,---,0.00,VWS V14.01,2013-05-10 06:58:00,
2013-05-10 01:00:00,52.3,21.0,30.09,SSW,202,0.0,6.3,29,0.00,,---,0.00,VWS V14.01,2013-05-10 07:00:00,
2013-05-10 01:02:00,52.2,20.9,30.09,SSW,199,2.2,3.1,29,0.00,,---,0.00,VWS V14.01,2013-05-10 07:02:00,
2013-05-10 01:03:00,52.0,21.5,30.09,SSW,198,0.0,3.1,30,0.00,,---,0.00,VWS V14.01,2013-05-10 07:03:00,
2013-05-10 01:04:00,51.8,21.4,30.09,SSW,198,0.0,3.1,30,0.00,,---,0.00,VWS V14.01,2013-05-10 07:04:00,
2013-05-10 01:05:00,51.8,21.4,30.09,SSW,198,0.0,3.1,30,0.00,,---,0.00,VWS V14.01,2013-05-10 07:05:00,
2013-05-10 01:07:00,51.6,22.0,30.09,SSW,192,4.0,4.0,31,0.00,,---,0.00,VWS V14.01,2013-05-10 07:07:00,
2013-05-10 01:09:00,51.4,21.8,30.09,SE,144,3.1,4.0,31,0.00,,---,0.00,VWS V14.01,2013-05-10 07:09:00,
2013-05-10 01:10:00,51.3,21.7,30.09,SE,146,3.6,4.0,31,0.00,,---,0.00,VWS V14.01,2013-05-10 07:10:00,
2013-05-10 01:12:00,51.1,21.5,30.09,South,170,4.0,4.0,31,0.00,,---,0.00,VWS V14.01,2013-05-10 07:12:00,
2013-05-10 01:14:00,51.1,22.3,30.09,South,186,3.6,4.0,32,0.00,,---,0.00,VWS V14.01,2013-05-10 07:14:00,
2013-05-10 01:15:00,51.1,22.3,30.09,South,185,2.7,4.0,32,0.00,,---,0.00,VWS V14.01,2013-05-10 07:15:00,
2013-05-10 01:17:00,50.7,22.0,30.11,South,186,0.0,4.0,32,0.00,,---,0.00,VWS V14.01,2013-05-10 07:17:00,
2013-05-10 01:19:00,50.5,22.5,30.11,South,185,3.1,4.0,33,0.00,,---,0.00,VWS V14.01,2013-05-10 07:19:00,
2013-05-10 01:20:00,50.5,22.5,30.11,South,186,3.1,4.0,33,0.00,,---,0.00,VWS V14.01,2013-05-10 07:20:00,
2013-05-10 01:22:00,50.4,22.4,30.11,SSW,194,3.6,4.0,33,0.00,,---,0.00,VWS V14.01,2013-05-10 07:22:00,
2013-05-10 01:24:00,50.4,23.1,30.11,SSW,194,2.2,4.0,34,0.00,,---,0.00,VWS V14.01,2013-05-10 07:24:00,
2013-05-10 01:25:00,50.2,22.9,30.11,SSW,194,0.0,4.0,34,0.00,,---,0.00,VWS V14.01,2013-05-10 07:25:00,
2013-05-10 01:27:00,50.2,23.6,30.11,SSW,195,3.6,4.0,35,0.00,,---,0.00,VWS V14.01,2013-05-10 07:27:00,
2013-05-10 01:29:00,50.2,23.6,30.11,South,190,2.2,4.0,35,0.00,,---,0.00,VWS V14.01,2013-05-10 07:29:00,
2013-05-10 01:30:00,50.4,23.8,30.11,South,190,2.7,4.0,35,0.00,,---,0.00,VWS V14.01,2013-05-10 07:30:00,
2013-05-10 01:31:00,50.4,23.8,30.11,South,190,2.2,2.7,35,0.00,,---,0.00,VWS V14.01,2013-05-10 07:31:00,
2013-05-10 01:32:00,50.4,23.8,30.11,SSW,199,4.0,4.0,35,0.00,,---,0.00,VWS V14.01,2013-05-10 07:32:00,
2013-05-10 01:34:00,50.5,23.9,30.11,SSW,196,3.6,5.4,35,0.00,,---,0.00,VWS V14.01,2013-05-10 07:34:00,
2013-05-10 01:35:00,50.5,23.2,30.11,SSW,195,4.0,5.4,34,0.00,,---,0.00,VWS V14.01,2013-05-10 07:35:00,
2013-05-10 01:36:00,50.5,23.2,30.11,South,191,2.2,5.4,34,0.00,,---,0.00,VWS V14.01,2013-05-10 07:36:00,
2013-05-10 01:37:00,50.7,23.4,30.11,South,191,2.7,5.4,34,0.00,,---,0.00,VWS V14.01,2013-05-10 07:37:00,
2013-05-10 01:39:00,50.7,23.4,30.11,SSW,193,2.7,5.4,34,0.00,,---,0.00,VWS V14.01,2013-05-10 07:39:00,
2013-05-10 01:40:00,50.7,23.4,30.11,SSW,193,2.7,5.4,34,0.00,,---,0.00,VWS V14.01,2013-05-10 07:40:00,
2013-05-10 01:41:00,50.7,23.4,30.11,SSW,196,4.0,5.4,34,0.00,,---,0.00,VWS V14.01,2013-05-10 07:41:00,
2013-05-10 01:42:00,50.7,23.4,30.11,SSW,196,3.6,5.4,34,0.00,,---,0.00,VWS V14.01,2013-05-10 07:42:00,
2013-05-10 01:44:00,50.9,24.2,30.11,SSW,197,3.1,5.4,35,0.00,,---,0.00,VWS V14.01,2013-05-10 07:44:00,
2013-05-10 01:45:00,50.9,24.2,30.11,SSW,196,3.6,5.4,35,0.00,,---,0.00,VWS V14.01,2013-05-10 07:45:00,
2013-05-10 01:47:00,51.1,23.7,30.11,SSW,193,3.1,4.9,34,0.00,,---,0.00,VWS V14.01,2013-05-10 07:47:00,
2013-05-10 01:49:00,51.1,23.7,30.11,SSW,196,3.6,4.9,34,0.00,,---,0.00,VWS V14.01,2013-05-10 07:49:00,
2013-05-10 01:50:00,51.1,23.7,30.11,SSW,197,5.4,5.4,34,0.00,,---,0.00,VWS V14.01,2013-05-10 07:50:00,
2013-05-10 01:52:00,51.3,23.9,30.11,SSW,198,4.0,5.4,34,0.00,,---,0.00,VWS V14.01,2013-05-10 07:52:00,
2013-05-10 01:55:00,51.3,23.9,30.11,SSW,194,6.3,6.3,34,0.00,,---,0.00,VWS V14.01,2013-05-10 07:55:00,
2013-05-10 01:57:00,51.3,23.9,30.11,South,186,4.9,6.3,34,0.00,,---,0.00,VWS V14.01,2013-05-10 07:57:00,
2013-05-10 01:58:00,51.3,23.9,30.11,South,184,4.0,6.3,34,0.00,,---,0.00,VWS V14.01,2013-05-10 07:58:00,
2013-05-10 02:00:00,51.3,23.9,30.11,South,187,5.8,5.8,34,0.00,,---,0.00,VWS V14.01,2013-05-10 08:00:00,
2013-05-10 02:01:00,51.3,23.9,30.11,SSW,195,6.3,6.3,34,0.00,,---,0.00,VWS V14.01,2013-05-10 08:01:00,
2013-05-10 02:02:00,51.3,23.9,30.11,SSW,192,4.5,6.3,34,0.00,,---,0.00,VWS V14.01,2013-05-10 08:02:00,
2013-05-10 02:03:00,51.3,23.9,30.11,SSW,207,5.4,6.3,34,0.00,,---,0.00,VWS V14.01,2013-05-10 08:03:00,
2013-05-10 02:05:00,51.1,23.7,30.11,SSW,203,2.7,6.3,34,0.00,,---,0.00,VWS V14.01,2013-05-10 08:05:00,
2013-05-10 02:06:00,51.1,23.7,30.11,SSW,195,4.0,6.3,34,0.00,,---,0.00,VWS V14.01,2013-05-10 08:06:00,
2013-05-10 02:08:00,51.1,23.7,30.11,SSW,193,3.6,6.3,34,0.00,,---,0.00,VWS V14.01,2013-05-10 08:08:00,
2013-05-10 02:10:00,50.9,23.5,30.11,SSW,192,3.6,6.3,34,0.00,,---,0.00,VWS V14.01,2013-05-10 08:10:00,
2013-05-10 02:11:00,50.9,23.5,30.11,South,174,3.6,6.3,34,0.00,,---,0.00,VWS V14.01,2013-05-10 08:11:00,
2013-05-10 02:13:00,50.9,23.5,30.11,SSW,193,4.9,6.3,34,0.00,,---,0.00,VWS V14.01,2013-05-10 08:13:00,
2013-05-10 02:16:00,50.7,24.1,30.11,SSW,194,4.0,4.0,35,0.00,,---,0.00,VWS V14.01,2013-05-10 08:16:00,
2013-05-10 02:17:00,50.7,24.1,30.09,SSW,196,4.9,4.9,35,0.00,,---,0.00,VWS V14.01,2013-05-10 08:17:00,
2013-05-10 02:18:00,50.7,24.1,30.09,South,187,4.0,5.4,35,0.00,,---,0.00,VWS V14.01,2013-05-10 08:18:00,
2013-05-10 02:21:00,50.5,23.2,30.09,SSW,197,5.8,6.3,34,0.00,,---,0.00,VWS V14.01,2013-05-10 08:21:00,
2013-05-10 02:22:00,50.5,23.2,30.09,SSW,202,4.0,6.3,34,0.00,,---,0.00,VWS V14.01,2013-05-10 08:22:00,
2013-05-10 02:23:00,50.7,23.4,30.09,SSW,193,4.9,6.3,34,0.00,,---,0.00,VWS V14.01,2013-05-10 08:23:00,
2013-05-10 02:26:00,50.9,23.5,30.09,South,179,4.0,6.3,34,0.00,,---,0.00,VWS V14.01,2013-05-10 08:26:00,
2013-05-10 02:27:00,50.9,23.5,30.09,SSW,195,4.0,6.3,34,0.00,,---,0.00,VWS V14.01,2013-05-10 08:27:00,
2013-05-10 02:28:00,50.9,23.5,30.09,SSW,198,2.7,6.3,34,0.00,,---,0.00,VWS V14.01,2013-05-10 08:28:00,
2013-05-10 02:31:00,51.1,23.7,30.11,SSW,197,2.2,3.1,34,0.00,,---,0.00,VWS V14.01,2013-05-10 08:31:00,
2013-05-10 02:32:00,50.9,23.5,30.11,SSW,197,4.0,4.0,34,0.00,,---,0.00,VWS V14.01,2013-05-10 08:32:00,
2013-05-10 02:33:00,50.9,23.5,30.11,South,189,2.7,4.0,34,0.00,,---,0.00,VWS V14.01,2013-05-10 08:33:00,
2013-05-10 02:34:00,50.9,23.5,30.11,South,189,3.6,4.0,34,0.00,,---,0.00,VWS V14.01,2013-05-10 08:34:00,
2013-05-10 02:36:00,50.9,23.5,30.11,SSW,192,4.0,5.8,34,0.00,,---,0.00,VWS V14.01,2013-05-10 08:36:00,
2013-05-10 02:37:00,51.1,23.7,30.11,SSW,202,4.0,5.8,34,0.00,,---,0.00,VWS V14.01,2013-05-10 08:37:00,
2013-05-10 02:38:00,51.1,23.7,30.11,SSW,193,4.0,5.8,34,0.00,,---,0.00,VWS V14.01,2013-05-10 08:38:00,
2013-05-10 02:39:00,51.1,23.7,30.11,SSW,194,3.6,5.8,34,0.00,,---,0.00,VWS V14.01,2013-05-10 08:39:00,
2013-05-10 02:41:00,50.7,23.4,30.11,SSW,192,2.7,5.8,34,0.00,,---,0.00,VWS V14.01,2013-05-10 08:41:00,
2013-05-10 02:42:00,50.7,23.4,30.11,SSW,192,3.6,5.8,34,0.00,,---,0.00,VWS V14.01,2013-05-10 08:42:00,
2013-05-10 02:43:00,50.5,23.9,30.11,South,191,2.2,5.8,35,0.00,,---,0.00,VWS V14.01,2013-05-10 08:43:00,
2013-05-10 02:44:00,50.5,23.9,30.11,South,191,2.2,5.8,35,0.00,,---,0.00,VWS V14.01,2013-05-10 08:44:00,
2013-05-10 02:46:00,49.8,24.0,30.11,South,185,2.7,4.9,36,0.00,,---,0.00,VWS V14.01,2013-05-10 08:46:00,
2013-05-10 02:47:00,49.8,24.0,30.11,SSW,200,6.3,6.3,36,0.00,,---,0.00,VWS V14.01,2013-05-10 08:47:00,
2013-05-10 02:48:00,49.6,23.8,30.11,South,190,3.6,6.3,36,0.00,,---,0.00,VWS V14.01,2013-05-10 08:48:00,
2013-05-10 02:49:00,49.6,23.8,30.11,South,183,4.0,6.3,36,0.00,,---,0.00,VWS V14.01,2013-05-10 08:49:00,
2013-05-10 02:50:00,49.5,23.6,30.11,SSW,194,4.9,6.3,36,0.00,,---,0.00,VWS V14.01,2013-05-10 08:50:00,
2013-05-10 02:51:00,49.5,24.3,30.11,SSW,194,4.0,6.3,37,0.00,,---,0.00,VWS V14.01,2013-05-10 08:51:00,
2013-05-10 02:52:00,49.6,24.5,30.11,SSW,193,4.0,6.3,37,0.00,,---,0.00,VWS V14.01,2013-05-10 08:52:00,
2013-05-10 02:53:00,49.5,24.3,30.11,SSW,196,4.0,6.3,37,0.00,,---,0.00,VWS V14.01,2013-05-10 08:53:00,
2013-05-10 02:54:00,49.5,24.3,30.11,SSW,194,5.4,6.3,37,0.00,,---,0.00,VWS V14.01,2013-05-10 08:54:00,
2013-05-10 02:55:00,49.5,24.3,30.11,SSW,206,3.6,6.3,37,0.00,,---,0.00,VWS V14.01,2013-05-10 08:55:00,
2013-05-10 02:57:00,49.5,24.3,30.11,SSW,197,2.7,6.3,37,0.00,,---,0.00,VWS V14.01,2013-05-10 08:57:00,
2013-05-10 02:58:00,49.3,24.1,30.11,SSW,196,2.7,6.3,37,0.00,,---,0.00,VWS V14.01,2013-05-10 08:58:00,
2013-05-10 02:59:00,49.3,24.1,30.11,SSW,197,2.7,6.3,37,0.00,,---,0.00,VWS V14.01,2013-05-10 08:59:00,
2013-05-10 03:00:00,49.3,24.1,30.11,SSW,197,2.2,2.2,37,0.00,,---,0.00,VWS V14.01,2013-05-10 09:00:00,
2013-05-10 03:02:00,49.1,24.0,30.11,SSW,197,2.2,2.7,37,0.00,,---,0.00,VWS V14.01,2013-05-10 09:02:00,
2013-05-10 03:03:00,48.7,23.6,30.11,SW,220,2.7,3.1,37,0.00,,---,0.00,VWS V14.01,2013-05-10 09:03:00,
2013-05-10 03:04:00,48.7,23.6,30.11,WSW,258,3.1,3.6,37,0.00,,---,0.00,VWS V14.01,2013-05-10 09:04:00,
2013-05-10 03:05:00,48.7,23.6,30.11,West,263,3.1,3.6,37,0.00,,---,0.00,VWS V14.01,2013-05-10 09:05:00,
2013-05-10 03:07:00,48.6,23.5,30.11,West,263,0.0,3.6,37,0.00,,---,0.00,VWS V14.01,2013-05-10 09:07:00,
2013-05-10 03:09:00,48.6,23.5,30.11,SSW,192,3.6,3.6,37,0.00,,---,0.00,VWS V14.01,2013-05-10 09:09:00,
2013-05-10 03:10:00,48.7,23.6,30.11,South,191,3.6,4.0,37,0.00,,---,0.00,VWS V14.01,2013-05-10 09:10:00,
2013-05-10 03:12:00,48.9,23.8,30.11,SSW,197,3.1,5.4,37,0.00,,---,0.00,VWS V14.01,2013-05-10 09:12:00,
2013-05-10 03:14:00,49.3,24.1,30.11,South,186,3.1,5.4,37,0.00,,---,0.00,VWS V14.01,2013-05-10 09:14:00,
2013-05-10 03:15:00,49.5,24.3,30.11,South,188,4.0,5.4,37,0.00,,---,0.00,VWS V14.01,2013-05-10 09:15:00,
2013-05-10 03:17:00,49.5,24.3,30.11,SSW,192,3.6,4.0,37,0.00,,---,0.00,VWS V14.01,2013-05-10 09:17:00,
2013-05-10 03:18:00,49.5,24.3,30.11,SSW,194,4.0,4.0,37,0.00,,---,0.00,VWS V14.01,2013-05-10 09:18:00,
2013-05-10 03:19:00,49.5,24.3,30.11,SSW,198,3.6,4.0,37,0.00,,---,0.00,VWS V14.01,2013-05-10 09:19:00,
2013-05-10 03:20:00,49.3,24.1,30.11,SSW,195,3.6,4.5,37,0.00,,---,0.00,VWS V14.01,2013-05-10 09:20:00,
2013-05-10 03:23:00,49.1,24.0,30.11,SSW,193,3.6,6.3,37,0.00,,---,0.00,VWS V14.01,2013-05-10 09:23:00,
2013-05-10 03:24:00,49.1,24.0,30.11,South,187,2.7,6.3,37,0.00,,---,0.00,VWS V14.01,2013-05-10 09:24:00,
2013-05-10 03:25:00,49.3,24.1,30.11,South,191,3.6,6.3,37,0.00,,---,0.00,VWS V14.01,2013-05-10 09:25:00,
2013-05-10 03:26:00,49.3,24.1,30.11,South,178,4.0,6.3,37,0.00,,---,0.00,VWS V14.01,2013-05-10 09:26:00,
2013-05-10 03:28:00,49.3,24.1,30.11,SSW,196,4.5,6.3,37,0.00,,---,0.00,VWS V14.01,2013-05-10 09:28:00,
2013-05-10 03:29:00,49.3,24.1,30.11,SSW,200,2.7,6.3,37,0.00,,---,0.00,VWS V14.01,2013-05-10 09:29:00,
2013-05-10 03:30:00,49.1,24.0,30.11,SSW,198,3.6,3.6,37,0.00,,---,0.00,VWS V14.01,2013-05-10 09:30:00,
2013-05-10 03:31:00,49.1,24.0,30.11,SSW,198,3.1,3.6,37,0.00,,---,0.00,VWS V14.01,2013-05-10 09:31:00,
2013-05-10 03:33:00,48.7,23.6,30.11,SSW,196,3.6,4.0,37,0.00,,---,0.00,VWS V14.01,2013-05-10 09:33:00,
2013-05-10 03:34:00,48.6,23.5,30.11,South,190,5.4,5.8,37,0.00,,---,0.00,VWS V14.01,2013-05-10 09:34:00,
2013-05-10 03:35:00,48.6,23.5,30.11,SSW,193,4.5,5.8,37,0.00,,---,0.00,VWS V14.01,2013-05-10 09:35:00,
2013-05-10 03:36:00,48.4,23.3,30.11,SSW,198,3.6,5.8,37,0.00,,---,0.00,VWS V14.01,2013-05-10 09:36:00,
2013-05-10 03:39:00,48.4,23.3,30.11,SSW,200,4.9,6.3,37,0.00,,---,0.00,VWS V14.01,2013-05-10 09:39:00,
2013-05-10 03:40:00,48.4,23.3,30.11,SSW,194,4.0,6.3,37,0.00,,---,0.00,VWS V14.01,2013-05-10 09:40:00,
2013-05-10 03:41:00,48.6,23.5,30.11,SSW,198,5.8,6.3,37,0.00,,---,0.00,VWS V14.01,2013-05-10 09:41:00,
2013-05-10 03:44:00,48.7,23.6,30.11,SSW,197,7.2,7.2,37,0.00,,---,0.00,VWS V14.01,2013-05-10 09:44:00,
2013-05-10 03:45:00,48.7,23.6,30.11,SSW,193,6.3,8.1,37,0.00,,---,0.00,VWS V14.01,2013-05-10 09:45:00,
2013-05-10 03:47:00,48.9,23.8,30.11,South,190,6.3,8.1,37,0.00,,---,0.00,VWS V14.01,2013-05-10 09:47:00,
2013-05-10 03:49:00,49.1,24.0,30.11,South,185,5.4,8.1,37,0.00,,---,0.00,VWS V14.01,2013-05-10 09:49:00,
2013-05-10 03:50:00,49.1,24.0,30.11,South,189,4.5,8.1,37,0.00,,---,0.00,VWS V14.01,2013-05-10 09:50:00,
2013-05-10 03:51:00,49.1,24.0,30.11,South,191,6.3,8.1,37,0.00,,---,0.00,VWS V14.01,2013-05-10 09:51:00,
2013-05-10 03:52:00,49.1,24.0,30.11,SSW,195,4.0,8.1,37,0.00,,---,0.00,VWS V14.01,2013-05-10 09:52:00,
2013-05-10 03:54:00,49.3,24.1,30.11,SSW,197,5.4,8.1,37,0.00,,---,0.00,VWS V14.01,2013-05-10 09:54:00,
2013-05-10 03:55:00,49.3,24.1,30.11,SSW,194,5.4,8.1,37,0.00,,---,0.00,VWS V14.01,2013-05-10 09:55:00,
2013-05-10 03:56:00,49.1,24.0,30.11,SSW,192,4.0,8.1,37,0.00,,---,0.00,VWS V14.01,2013-05-10 09:56:00,
2013-05-10 03:57:00,49.1,24.0,30.11,South,177,3.6,8.1,37,0.00,,---,0.00,VWS V14.01,2013-05-10 09:57:00,
2013-05-10 04:00:00,49.1,24.0,30.11,SSW,196,5.8,8.1,37,0.00,,---,0.00,VWS V14.01,2013-05-10 10:00:00,
2013-05-10 04:01:00,49.1,24.0,30.11,SSW,196,4.9,6.3,37,0.00,,---,0.00,VWS V14.01,2013-05-10 10:01:00,
2013-05-10 04:02:00,49.1,24.0,30.11,SSW,196,5.4,6.3,37,0.00,,---,0.00,VWS V14.01,2013-05-10 10:02:00,
2013-05-10 04:05:00,49.1,24.0,30.11,SSW,198,5.8,8.1,37,0.00,,---,0.00,VWS V14.01,2013-05-10 10:05:00,
2013-05-10 04:06:00,49.1,24.0,30.11,SSW,199,5.8,8.1,37,0.00,,---,0.00,VWS V14.01,2013-05-10 10:06:00,
2013-05-10 04:07:00,49.1,24.0,30.11,SSW,201,4.0,8.1,37,0.00,,---,0.00,VWS V14.01,2013-05-10 10:07:00,
2013-05-10 04:10:00,49.1,24.0,30.11,SSW,196,4.9,8.1,37,0.00,,---,0.00,VWS V14.01,2013-05-10 10:10:00,
2013-05-10 04:11:00,49.1,24.0,30.11,SSW,194,6.3,8.1,37,0.00,,---,0.00,VWS V14.01,2013-05-10 10:11:00,
2013-05-10 04:12:00,49.1,24.0,30.11,SSW,195,4.9,8.1,37,0.00,,---,0.00,VWS V14.01,2013-05-10 10:12:00,
2013-05-10 04:15:00,49.1,24.0,30.11,SSW,200,4.9,4.9,37,0.00,,---,0.00,VWS V14.01,2013-05-10 10:15:00,
2013-05-10 04:16:00,48.9,23.8,30.11,South,191,2.2,4.9,37,0.00,,---,0.00,VWS V14.01,2013-05-10 10:16:00,
2013-05-10 04:17:00,48.9,23.8,30.11,South,190,3.1,4.9,37,0.00,,---,0.00,VWS V14.01,2013-05-10 10:17:00,
2013-05-10 04:20:00,48.7,23.6,30.11,SSW,196,4.0,4.9,37,0.00,,---,0.00,VWS V14.01,2013-05-10 10:20:00,
2013-05-10 04:21:00,48.6,23.5,30.11,South,191,3.1,4.9,37,0.00,,---,0.00,VWS V14.01,2013-05-10 10:21:00,
2013-05-10 04:22:00,48.4,23.3,30.11,SSW,198,3.6,4.9,37,0.00,,---,0.00,VWS V14.01,2013-05-10 10:22:00,
2013-05-10 04:25:00,48.2,23.2,30.11,SSW,198,3.6,6.3,37,0.00,,---,0.00,VWS V14.01,2013-05-10 10:25:00,
2013-05-10 04:26:00,48.2,23.2,30.11,SSW,198,3.1,6.3,37,0.00,,---,0.00,VWS V14.01,2013-05-10 10:26:00,
2013-05-10 04:27:00,48.0,23.6,30.11,SSW,195,2.7,6.3,38,0.00,,---,0.00,VWS V14.01,2013-05-10 10:27:00,
2013-05-10 04:30:00,47.8,23.5,30.11,SSW,199,3.1,4.0,38,0.00,,---,0.00,VWS V14.01,2013-05-10 10:30:00,
2013-05-10 04:31:00,47.8,23.5,30.11,SSW,195,4.0,4.0,38,0.00,,---,0.00,VWS V14.01,2013-05-10 10:31:00,
2013-05-10 04:32:00,47.8,23.5,30.11,South,189,4.0,5.4,38,0.00,,---,0.00,VWS V14.01,2013-05-10 10:32:00,
2013-05-10 04:33:00,47.8,23.5,30.11,SSW,203,4.0,5.4,38,0.00,,---,0.00,VWS V14.01,2013-05-10 10:33:00,
2013-05-10 04:35:00,47.8,23.5,30.11,SSW,193,3.6,5.4,38,0.00,,---,0.00,VWS V14.01,2013-05-10 10:35:00,
2013-05-10 04:36:00,47.8,23.5,30.11,SSW,196,4.0,5.4,38,0.00,,---,0.00,VWS V14.01,2013-05-10 10:36:00,
2013-05-10 04:37:00,47.8,23.5,30.11,South,190,3.6,5.4,38,0.00,,---,0.00,VWS V14.01,2013-05-10 10:37:00,
2013-05-10 04:38:00,47.8,23.5,30.11,SSW,194,5.4,5.4,38,0.00,,---,0.00,VWS V14.01,2013-05-10 10:38:00,
2013-05-10 04:40:00,47.8,23.5,30.11,South,187,5.4,5.4,38,0.00,,---,0.00,VWS V14.01,2013-05-10 10:40:00,
2013-05-10 04:42:00,47.8,23.5,30.11,SSW,197,5.4,5.4,38,0.00,,---,0.00,VWS V14.01,2013-05-10 10:42:00,
2013-05-10 04:43:00,47.8,23.5,30.11,South,182,2.7,5.4,38,0.00,,---,0.00,VWS V14.01,2013-05-10 10:43:00,
2013-05-10 04:45:00,47.8,23.5,30.11,SSW,197,3.6,4.0,38,0.00,,---,0.00,VWS V14.01,2013-05-10 10:45:00,
2013-05-10 04:47:00,47.7,23.3,30.11,SSW,192,3.6,4.0,38,0.00,,---,0.00,VWS V14.01,2013-05-10 10:47:00,
2013-05-10 04:49:00,47.7,23.3,30.11,SSW,200,4.0,4.0,38,0.00,,---,0.00,VWS V14.01,2013-05-10 10:49:00,
2013-05-10 04:51:00,47.7,23.9,30.11,South,189,2.7,4.9,39,0.00,,---,0.00,VWS V14.01,2013-05-10 10:51:00,
2013-05-10 04:52:00,47.7,23.9,30.11,South,182,4.0,4.9,39,0.00,,---,0.00,VWS V14.01,2013-05-10 10:52:00,
2013-05-10 04:53:00,47.7,23.9,30.11,South,188,5.4,5.4,39,0.00,,---,0.00,VWS V14.01,2013-05-10 10:53:00,
2013-05-10 04:55:00,47.5,23.8,30.11,South,183,3.1,5.4,39,0.00,,---,0.00,VWS V14.01,2013-05-10 10:55:00,
2013-05-10 04:56:00,47.5,23.8,30.11,SSE,161,2.7,5.4,39,0.00,,---,0.00,VWS V14.01,2013-05-10 10:56:00,
2013-05-10 04:57:00,47.5,23.8,30.11,SSE,158,2.7,5.4,39,0.00,,---,0.00,VWS V14.01,2013-05-10 10:57:00,
2013-05-10 04:58:00,47.5,23.8,30.11,SSE,156,3.1,5.4,39,0.00,,---,0.00,VWS V14.01,2013-05-10 10:58:00,
2013-05-10 05:00:00,47.1,23.5,30.11,SSE,165,2.7,2.7,39,0.00,,---,0.00,VWS V14.01,2013-05-10 11:00:00,
2013-05-10 05:01:00,46.9,23.3,30.11,South,172,2.7,3.1,39,0.00,,---,0.00,VWS V14.01,2013-05-10 11:01:00,
2013-05-10 05:03:00,46.6,23.0,30.11,South,177,2.7,3.1,39,0.00,,---,0.00,VWS V14.01,2013-05-10 11:03:00,
2013-05-10 05:05:00,46.2,23.2,30.11,South,190,5.8,5.8,40,0.00,,---,0.00,VWS V14.01,2013-05-10 11:05:00,
2013-05-10 05:06:00,46.0,23.7,30.11,SSW,195,4.0,5.8,41,0.00,,---,0.00,VWS V14.01,2013-05-10 11:06:00,
2013-05-10 05:08:00,46.0,23.7,30.11,South,181,4.9,5.8,41,0.00,,---,0.00,VWS V14.01,2013-05-10 11:08:00,
2013-05-10 05:09:00,46.2,23.8,30.11,South,179,3.1,5.8,41,0.00,,---,0.00,VWS V14.01,2013-05-10 11:09:00,
2013-05-10 05:10:00,46.2,23.8,30.11,South,175,2.2,5.8,41,0.00,,---,0.00,VWS V14.01,2013-05-10 11:10:00,
2013-05-10 05:12:00,46.2,23.8,30.11,South,176,2.7,5.8,41,0.00,,---,0.00,VWS V14.01,2013-05-10 11:12:00,
2013-05-10 05:13:00,46.2,23.8,30.11,South,173,2.7,5.8,41,0.00,,---,0.00,VWS V14.01,2013-05-10 11:13:00,
2013-05-10 05:14:00,46.2,23.8,30.11,SSE,165,3.1,5.8,41,0.00,,---,0.00,VWS V14.01,2013-05-10 11:14:00,
2013-05-10 05:15:00,46.2,23.8,30.11,SSE,158,2.7,2.7,41,0.00,,---,0.00,VWS V14.01,2013-05-10 11:15:00,
2013-05-10 05:17:00,46.4,24.0,30.11,SSE,149,2.7,3.1,41,0.00,,---,0.00,VWS V14.01,2013-05-10 11:17:00,
2013-05-10 05:18:00,46.4,24.0,30.11,SSE,147,3.1,3.1,41,0.00,,---,0.00,VWS V14.01,2013-05-10 11:18:00,
2013-05-10 05:19:00,46.4,24.0,30.11,South,187,3.6,3.6,41,0.00,,---,0.00,VWS V14.01,2013-05-10 11:19:00,
2013-05-10 05:21:00,46.4,24.0,30.11,South,171,2.7,3.6,41,0.00,,---,0.00,VWS V14.01,2013-05-10 11:21:00,
2013-05-10 05:22:00,46.4,24.0,30.11,South,189,4.0,4.0,41,0.00,,---,0.00,VWS V14.01,2013-05-10 11:22:00,
2013-05-10 05:23:00,46.4,24.0,30.11,South,189,3.1,4.0,41,0.00,,---,0.00,VWS V14.01,2013-05-10 11:23:00,
2013-05-10 05:24:00,46.4,24.0,30.11,South,180,4.0,5.4,41,0.00,,---,0.00,VWS V14.01,2013-05-10 11:24:00,
2013-05-10 05:26:00,46.6,24.2,30.11,SSW,201,5.4,5.4,41,0.00,,---,0.00,VWS V14.01,2013-05-10 11:26:00,
2013-05-10 05:27:00,46.6,24.2,30.11,South,184,3.6,5.4,41,0.00,,---,0.00,VWS V14.01,2013-05-10 11:27:00,
2013-05-10 05:28:00,46.6,24.2,30.11,SSE,162,2.7,5.4,41,0.00,,---,0.00,VWS V14.01,2013-05-10 11:28:00,
2013-05-10 05:29:00,46.6,24.2,30.11,SSW,196,4.0,5.4,41,0.00,,---,0.00,VWS V14.01,2013-05-10 11:29:00,
2013-05-10 05:30:00,46.4,24.0,30.11,South,170,2.7,3.1,41,0.00,,---,0.00,VWS V14.01,2013-05-10 11:30:00,
2013-05-10 05:31:00,46.4,24.0,30.11,South,191,2.7,3.1,41,0.00,,---,0.00,VWS V14.01,2013-05-10 11:31:00,
2013-05-10 05:33:00,46.4,24.0,30.11,South,184,2.7,5.8,41,0.00,,---,0.00,VWS V14.01,2013-05-10 11:33:00,
2013-05-10 05:34:00,46.4,24.0,30.11,SSW,194,5.4,5.8,41,0.00,,---,0.00,VWS V14.01,2013-05-10 11:34:00,
2013-05-10 05:35:00,46.4,24.0,30.11,SSW,193,4.9,6.3,41,0.00,,---,0.00,VWS V14.01,2013-05-10 11:35:00,
2013-05-10 05:36:00,46.6,24.2,30.11,South,174,3.6,6.3,41,0.00,,---,0.00,VWS V14.01,2013-05-10 11:36:00,
2013-05-10 05:38:00,46.6,24.2,30.11,SSW,203,4.0,6.3,41,0.00,,---,0.00,VWS V14.01,2013-05-10 11:38:00,
2013-05-10 05:39:00,46.6,24.2,30.11,SSW,196,2.2,6.3,41,0.00,,---,0.00,VWS V14.01,2013-05-10 11:39:00,
2013-05-10 05:40:00,46.6,24.2,30.11,South,175,2.2,6.3,41,0.00,,---,0.00,VWS V14.01,2013-05-10 11:40:00,
2013-05-10 05:41:00,46.6,24.2,30.11,South,175,2.7,6.3,41,0.00,,---,0.00,VWS V14.01,2013-05-10 11:41:00,
2013-05-10 05:43:00,46.6,24.2,30.11,SSW,194,3.1,6.3,41,0.00,,---,0.00,VWS V14.01,2013-05-10 11:43:00,
2013-05-10 05:44:00,46.6,24.2,30.11,SSW,194,3.1,6.3,41,0.00,,---,0.00,VWS V14.01,2013-05-10 11:44:00,
2013-05-10 05:45:00,46.8,24.3,30.11,SSW,196,2.2,3.1,41,0.00,,---,0.00,VWS V14.01,2013-05-10 11:45:00,
2013-05-10 05:46:00,46.8,24.3,30.11,SSW,193,4.0,4.0,41,0.00,,---,0.00,VWS V14.01,2013-05-10 11:46:00,
2013-05-10 05:48:00,46.9,24.5,30.11,South,187,3.1,4.9,41,0.00,,---,0.00,VWS V14.01,2013-05-10 11:48:00,
2013-05-10 05:49:00,46.9,24.5,30.11,South,187,2.7,4.9,41,0.00,,---,0.00,VWS V14.01,2013-05-10 11:49:00,
2013-05-10 05:50:00,47.1,24.1,30.11,South,188,3.1,4.9,40,0.00,,---,0.00,VWS V14.01,2013-05-10 11:50:00,
2013-05-10 05:51:00,47.1,24.1,30.11,South,189,2.7,4.9,40,0.00,,---,0.00,VWS V14.01,2013-05-10 11:51:00,
2013-05-10 05:53:00,46.9,23.9,30.11,South,185,2.2,4.9,40,0.00,,---,0.00,VWS V14.01,2013-05-10 11:53:00,
2013-05-10 05:54:00,46.9,23.9,30.11,South,172,0.0,4.9,40,0.00,,---,0.00,VWS V14.01,2013-05-10 11:54:00,
2013-05-10 05:55:00,46.9,23.9,30.11,South,172,0.0,4.9,40,0.00,,---,0.00,VWS V14.01,2013-05-10 11:55:00,
2013-05-10 05:56:00,46.8,23.7,30.11,South,172,0.0,4.9,40,0.00,,---,0.00,VWS V14.01,2013-05-10 11:56:00,
2013-05-10 05:57:00,46.6,24.2,30.11,South,172,2.2,4.9,41,0.00,,---,0.00,VWS V14.01,2013-05-10 11:57:00,
2013-05-10 05:58:00,46.4,24.0,30.11,South,187,3.1,4.9,41,0.00,,---,0.00,VWS V14.01,2013-05-10 11:58:00,
2013-05-10 05:59:00,46.4,24.0,30.11,SSW,194,4.0,4.9,41,0.00,,---,0.00,VWS V14.01,2013-05-10 11:59:00,
2013-05-10 06:00:00,46.2,24.4,30.11,SSW,195,5.4,5.4,42,0.00,,---,0.00,VWS V14.01,2013-05-10 12:00:00,
2013-05-10 06:01:00,46.2,24.4,30.11,SSW,198,2.7,5.4,42,0.00,,---,0.00,VWS V14.01,2013-05-10 12:01:00,
2013-05-10 06:02:00,46.2,24.4,30.11,SSW,197,5.8,5.8,42,0.00,,---,0.00,VWS V14.01,2013-05-10 12:02:00,
2013-05-10 06:04:00,46.4,24.0,30.11,SSW,201,5.8,6.3,41,0.00,,---,0.00,VWS V14.01,2013-05-10 12:04:00,
2013-05-10 06:06:00,46.6,24.2,30.11,SSW,194,5.8,6.3,41,0.00,,---,0.00,VWS V14.01,2013-05-10 12:06:00,
2013-05-10 06:08:00,46.8,24.3,30.11,SSW,208,3.1,6.3,41,0.00,,---,0.00,VWS V14.01,2013-05-10 12:08:00,
2013-05-10 06:09:00,46.8,24.3,30.11,South,190,2.7,6.3,41,0.00,,---,0.00,VWS V14.01,2013-05-10 12:09:00,
2013-05-10 06:10:00,46.9,24.5,30.11,SSW,196,2.7,6.3,41,0.00,,---,0.00,VWS V14.01,2013-05-10 12:10:00,
2013-05-10 06:11:00,46.9,24.5,30.11,SSW,195,4.9,6.3,41,0.00,,---,0.00,VWS V14.01,2013-05-10 12:11:00,
2013-05-10 06:13:00,47.1,24.6,30.11,SSW,196,4.0,6.3,41,0.00,,---,0.00,VWS V14.01,2013-05-10 12:13:00,
2013-05-10 06:14:00,47.1,24.6,30.11,SSW,198,4.0,6.3,41,0.00,,---,0.00,VWS V14.01,2013-05-10 12:14:00,
2013-05-10 06:15:00,47.1,24.6,30.11,SSW,200,3.1,3.1,41,0.00,,---,0.00,VWS V14.01,2013-05-10 12:15:00,
2013-05-10 06:16:00,47.1,24.6,30.11,SSW,197,3.1,3.6,41,0.00,,---,0.00,VWS V14.01,2013-05-10 12:16:00,
2013-05-10 06:18:00,47.1,24.6,30.11,SSW,193,4.0,4.0,41,0.00,,---,0.00,VWS V14.01,2013-05-10 12:18:00,
2013-05-10 06:19:00,47.3,24.8,30.11,SSW,197,4.5,4.9,41,0.00,,---,0.00,VWS V14.01,2013-05-10 12:19:00,
2013-05-10 06:20:00,47.3,24.8,30.11,SSW,192,3.6,4.9,41,0.00,,---,0.00,VWS V14.01,2013-05-10 12:20:00,
2013-05-10 06:21:00,47.3,24.8,30.11,South,191,3.1,4.9,41,0.00,,---,0.00,VWS V14.01,2013-05-10 12:21:00,
2013-05-10 06:22:00,47.3,24.8,30.11,SSW,194,4.0,4.9,41,0.00,,---,0.00,VWS V14.01,2013-05-10 12:22:00,
2013-05-10 06:23:00,47.3,24.8,30.11,South,190,3.6,4.9,41,0.00,,---,0.00,VWS V14.01,2013-05-10 12:23:00,
2013-05-10 06:24:00,47.3,24.8,30.11,SSW,195,3.6,4.9,41,0.00,,---,0.00,VWS V14.01,2013-05-10 12:24:00,
2013-05-10 06:26:00,47.3,24.8,30.11,SSW,194,2.7,4.9,41,0.00,,---,0.00,VWS V14.01,2013-05-10 12:26:00,
2013-05-10 06:27:00,47.3,24.8,30.11,South,191,2.7,4.9,41,0.00,,---,0.00,VWS V14.01,2013-05-10 12:27:00,
2013-05-10 06:28:00,47.3,24.8,30.11,South,191,2.7,4.9,41,0.00,,---,0.00,VWS V14.01,2013-05-10 12:28:00,
2013-05-10 06:29:00,47.3,24.8,30.11,South,191,3.6,4.9,41,0.00,,---,0.00,VWS V14.01,2013-05-10 12:29:00,
2013-05-10 06:31:00,47.3,24.8,30.11,SSW,194,4.5,4.5,41,0.00,,---,0.00,VWS V14.01,2013-05-10 12:31:00,
2013-05-10 06:32:00,47.3,24.8,30.11,SSW,192,4.0,4.5,41,0.00,,---,0.00,VWS V14.01,2013-05-10 12:32:00,
2013-05-10 06:33:00,47.3,24.8,30.11,SSW,192,3.1,4.5,41,0.00,,---,0.00,VWS V14.01,2013-05-10 12:33:00,
2013-05-10 06:34:00,47.3,24.8,30.11,SSW,194,4.9,5.4,41,0.00,,---,0.00,VWS V14.01,2013-05-10 12:34:00,
2013-05-10 06:36:00,47.5,25.0,30.11,SSW,197,3.6,5.4,41,0.00,,---,0.00,VWS V14.01,2013-05-10 12:36:00,
2013-05-10 06:37:00,47.5,25.0,30.11,SSW,195,3.1,5.4,41,0.00,,---,0.00,VWS V14.01,2013-05-10 12:37:00,
2013-05-10 06:38:00,47.5,25.0,30.11,SSW,195,2.7,5.4,41,0.00,,---,0.00,VWS V14.01,2013-05-10 12:38:00,
2013-05-10 06:39:00,47.5,25.0,30.11,SSW,194,2.7,5.4,41,0.00,,---,0.00,VWS V14.01,2013-05-10 12:39:00,
2013-05-10 06:41:00,47.7,25.1,30.11,SSW,194,3.1,5.4,41,0.00,,---,0.00,VWS V14.01,2013-05-10 12:41:00,
2013-05-10 06:43:00,47.7,25.1,30.11,SSW,194,3.1,5.4,41,0.00,,---,0.00,VWS V14.01,2013-05-10 12:43:00,
2013-05-10 06:45:00,47.7,25.1,30.11,SSW,194,2.7,5.4,41,0.00,,---,0.00,VWS V14.01,2013-05-10 12:45:00,
2013-05-10 06:46:00,47.7,24.5,30.11,South,187,3.6,3.6,40,0.00,,---,0.00,VWS V14.01,2013-05-10 12:46:00,
2013-05-10 06:47:00,47.7,24.5,30.11,South,187,2.7,3.6,40,0.00,,---,0.00,VWS V14.01,2013-05-10 12:47:00,
2013-05-10 06:48:00,47.7,24.5,30.11,South,190,3.1,3.6,40,0.00,,---,0.00,VWS V14.01,2013-05-10 12:48:00,
2013-05-10 06:51:00,48.0,24.9,30.11,South,190,0.0,3.6,40,0.00,,---,0.00,VWS V14.01,2013-05-10 12:51:00,
2013-05-10 06:52:00,48.2,25.6,30.11,North,357,6.3,6.3,41,0.00,,---,0.00,VWS V14.01,2013-05-10 12:52:00,
2013-05-10 06:53:00,48.2,25.6,30.11,NNE,31,9.6,12.8,41,0.00,,---,0.00,VWS V14.01,2013-05-10 12:53:00,
2013-05-10 06:56:00,47.1,25.2,30.11,NNE,14,3.6,16.3,42,0.00,,---,0.00,VWS V14.01,2013-05-10 12:56:00,
2013-05-10 06:57:00,46.8,25.5,30.11,NW,317,2.7,16.3,43,0.00,,---,0.00,VWS V14.01,2013-05-10 12:57:00,
2013-05-10 06:58:00,46.4,25.7,30.11,NNW,345,6.3,16.3,44,0.00,,---,0.00,VWS V14.01,2013-05-10 12:58:00,
2013-05-10 06:59:00,46.2,26.1,30.11,North,353,8.3,16.3,45,0.00,,---,0.00,VWS V14.01,2013-05-10 12:59:00,
2013-05-10 07:01:00,45.5,26.5,30.17,North,7,5.4,5.4,47,0.00,,---,0.00,VWS V14.01,2013-05-10 13:01:00,
2013-05-10 07:02:00,45.3,26.8,30.17,North,353,4.9,6.3,48,0.00,,---,0.00,VWS V14.01,2013-05-10 13:02:00,
2013-05-10 07:03:00,45.1,26.6,30.17,North,357,4.0,6.3,48,0.00,,---,0.00,VWS V14.01,2013-05-10 13:03:00,
2013-05-10 07:04:00,44.8,26.8,30.17,North,0,2.7,6.3,49,0.00,,---,0.00,VWS V14.01,2013-05-10 13:04:00,
2013-05-10 07:06:00,44.6,27.1,30.17,North,4,3.6,6.3,50,0.00,,---,0.00,VWS V14.01,2013-05-10 13:06:00,
2013-05-10 07:07:00,44.6,27.1,30.17,North,5,0.0,6.3,50,0.00,,---,0.00,VWS V14.01,2013-05-10 13:07:00,
2013-05-10 07:08:00,44.6,27.1,30.17,North,5,0.0,6.3,50,0.00,,---,0.00,VWS V14.01,2013-05-10 13:08:00,
2013-05-10 07:09:00,44.6,27.1,30.17,North,5,0.0,6.3,50,0.00,,---,0.00,VWS V14.01,2013-05-10 13:09:00,
2013-05-10 07:11:00,44.8,27.8,30.17,SSW,198,3.1,6.3,51,0.00,,---,0.00,VWS V14.01,2013-05-10 13:11:00,
2013-05-10 07:12:00,44.8,27.8,30.17,SSW,196,3.1,6.3,51,0.00,,---,0.00,VWS V14.01,2013-05-10 13:12:00,
2013-05-10 07:13:00,44.8,27.8,30.17,SSW,196,3.1,6.3,51,0.00,,---,0.00,VWS V14.01,2013-05-10 13:13:00,
2013-05-10 07:15:00,44.8,27.8,30.17,SSW,196,3.6,6.3,51,0.00,,---,0.00,VWS V14.01,2013-05-10 13:15:00,
2013-05-10 07:16:00,44.8,27.8,30.17,SSW,194,2.2,4.0,51,0.00,,---,0.00,VWS V14.01,2013-05-10 13:16:00,
2013-05-10 07:17:00,44.8,27.8,30.17,South,187,3.6,4.0,51,0.00,,---,0.00,VWS V14.01,2013-05-10 13:17:00,
2013-05-10 07:18:00,44.8,27.8,30.17,South,187,3.1,4.0,51,0.00,,---,0.00,VWS V14.01,2013-05-10 13:18:00,
2013-05-10 07:20:00,44.8,27.8,30.17,South,190,3.1,4.0,51,0.00,,---,0.00,VWS V14.01,2013-05-10 13:20:00,
2013-05-10 07:22:00,44.8,27.8,30.17,South,187,0.0,4.0,51,0.00,,---,0.00,VWS V14.01,2013-05-10 13:22:00,
2013-05-10 07:23:00,44.8,27.8,30.17,South,186,4.9,5.8,51,0.00,,---,0.00,VWS V14.01,2013-05-10 13:23:00,
2013-05-10 07:25:00,45.0,27.9,30.17,SSW,201,4.0,5.8,51,0.00,,---,0.00,VWS V14.01,2013-05-10 13:25:00,
2013-05-10 07:27:00,45.1,28.1,30.17,South,187,2.2,5.8,51,0.00,,---,0.00,VWS V14.01,2013-05-10 13:27:00,
2013-05-10 07:29:00,45.5,28.4,30.17,South,187,3.1,5.8,51,0.00,,---,0.00,VWS V14.01,2013-05-10 13:29:00,
2013-05-10 07:30:00,45.7,28.1,30.17,South,187,2.7,2.7,50,0.00,,---,0.00,VWS V14.01,2013-05-10 13:30:00,
2013-05-10 07:32:00,46.2,27.6,30.20,South,186,2.7,4.0,48,0.00,,---,0.00,VWS V14.01,2013-05-10 13:32:00,
2013-05-10 07:33:00,46.2,27.6,30.20,South,186,2.2,4.0,48,0.00,,---,0.00,VWS V14.01,2013-05-10 13:33:00,
2013-05-10 07:34:00,46.6,28.0,30.20,South,183,2.7,4.0,48,0.00,,---,0.00,VWS V14.01,2013-05-10 13:34:00,
2013-05-10 07:35:00,46.9,27.8,30.20,SSW,204,3.1,4.0,47,0.00,,---,0.00,VWS V14.01,2013-05-10 13:35:00,
2013-05-10 07:37:00,47.3,27.6,30.20,SSE,165,3.1,4.9,46,0.00,,---,0.00,VWS V14.01,2013-05-10 13:37:00,
2013-05-10 07:38:00,47.5,27.2,30.20,SSE,165,3.1,4.9,45,0.00,,---,0.00,VWS V14.01,2013-05-10 13:38:00,
2013-05-10 07:39:00,47.5,27.2,30.20,SE,139,2.7,4.9,45,0.00,,---,0.00,VWS V14.01,2013-05-10 13:39:00,
2013-05-10 07:40:00,47.5,25.5,30.20,ESE,111,2.2,4.9,42,0.00,,---,0.00,VWS V14.01,2013-05-10 13:40:00,
2013-05-10 07:42:00,48.0,26.6,30.20,ESE,111,3.1,4.9,43,0.00,,---,0.00,VWS V14.01,2013-05-10 13:42:00,
2013-05-10 07:43:00,48.2,26.8,30.20,ESE,111,0.0,4.9,43,0.00,,---,0.00,VWS V14.01,2013-05-10 13:43:00,
2013-05-10 07:44:00,48.2,26.8,30.20,ESE,111,0.0,4.9,43,0.00,,---,0.00,VWS V14.01,2013-05-10 13:44:00,
2013-05-10 07:45:00,48.4,26.4,30.20,North,353,3.1,3.1,42,0.00,,---,0.00,VWS V14.01,2013-05-10 13:45:00,
2013-05-10 07:46:00,48.4,25.8,30.20,WNW,303,2.2,3.1,41,0.00,,---,0.00,VWS V14.01,2013-05-10 13:46:00,
2013-05-10 07:48:00,48.9,24.5,30.20,North,357,2.7,5.4,38,0.00,,---,0.00,VWS V14.01,2013-05-10 13:48:00,
2013-05-10 07:49:00,49.1,24.6,30.20,NNW,346,2.7,5.4,38,0.00,,---,0.00,VWS V14.01,2013-05-10 13:49:00,
2013-05-10 07:50:00,49.5,24.9,30.20,WNW,300,0.0,5.4,38,0.00,,---,0.00,VWS V14.01,2013-05-10 13:50:00,
2013-05-10 07:51:00,49.6,25.1,30.20,NW,315,0.0,5.4,38,0.00,,---,0.00,VWS V14.01,2013-05-10 13:51:00,
2013-05-10 07:53:00,49.8,25.2,30.20,NW,313,2.7,5.4,38,0.00,,---,0.00,VWS V14.01,2013-05-10 13:53:00,
2013-05-10 07:54:00,50.0,24.8,30.20,NW,315,0.0,5.4,37,0.00,,---,0.00,VWS V14.01,2013-05-10 13:54:00,
2013-05-10 07:55:00,50.2,24.9,30.20,WNW,294,3.1,5.4,37,0.00,,---,0.00,VWS V14.01,2013-05-10 13:55:00,
2013-05-10 07:57:00,50.4,25.1,30.20,WNW,295,5.4,5.4,37,0.00,,---,0.00,VWS V14.01,2013-05-10 13:57:00,
2013-05-10 07:58:00,50.4,24.4,30.20,North,0,3.6,5.4,36,0.00,,---,0.00,VWS V14.01,2013-05-10 13:58:00,
2013-05-10 07:59:00,50.5,25.2,30.20,NNW,338,3.6,5.8,37,0.00,,---,0.00,VWS V14.01,2013-05-10 13:59:00,
2013-05-10 08:00:00,50.7,25.4,30.20,NW,322,2.7,5.8,37,0.00,,---,0.00,VWS V14.01,2013-05-10 14:00:00,
2013-05-10 08:02:00,50.9,24.9,30.20,NNW,328,3.6,5.4,36,0.00,,---,0.00,VWS V14.01,2013-05-10 14:02:00,
2013-05-10 08:03:00,51.1,25.1,30.20,NNW,331,3.6,5.4,36,0.00,,---,0.00,VWS V14.01,2013-05-10 14:03:00,
2013-05-10 08:05:00,51.3,25.2,30.20,North,357,2.7,5.4,36,0.00,,---,0.00,VWS V14.01,2013-05-10 14:05:00,
2013-05-10 08:06:00,51.4,25.4,30.20,North,6,6.3,6.3,36,0.00,,---,0.00,VWS V14.01,2013-05-10 14:06:00,
2013-05-10 08:07:00,51.6,25.6,30.20,NNW,344,3.1,6.3,36,0.00,,---,0.00,VWS V14.01,2013-05-10 14:07:00,
2013-05-10 08:08:00,51.6,24.9,30.20,North,0,5.4,7.6,35,0.00,,---,0.00,VWS V14.01,2013-05-10 14:08:00,
2013-05-10 08:10:00,51.8,24.3,30.20,NNW,343,5.8,7.6,34,0.00,,---,0.00,VWS V14.01,2013-05-10 14:10:00,
2013-05-10 08:11:00,52.0,23.8,30.20,NNW,332,3.6,7.6,33,0.00,,---,0.00,VWS V14.01,2013-05-10 14:11:00,
2013-05-10 08:12:00,52.3,24.1,30.20,North,357,6.7,8.3,33,0.00,,---,0.00,VWS V14.01,2013-05-10 14:12:00,
2013-05-10 08:13:00,52.3,23.4,30.20,North,0,8.7,8.7,32,0.00,,---,0.00,VWS V14.01,2013-05-10 14:13:00,
2013-05-10 08:15:00,52.5,23.5,30.20,North,0,5.4,6.7,32,0.00,,---,0.00,VWS V14.01,2013-05-10 14:15:00,
2013-05-10 08:16:00,52.5,23.5,30.20,NNE,13,5.8,6.7,32,0.00,,---,0.00,VWS V14.01,2013-05-10 14:16:00,
2013-05-10 08:18:00,52.5,23.5,30.20,NNE,19,5.4,8.1,32,0.00,,---,0.00,VWS V14.01,2013-05-10 14:18:00,
2013-05-10 08:20:00,52.5,23.5,30.20,North,0,5.8,8.1,32,0.00,,---,0.00,VWS V14.01,2013-05-10 14:20:00,
2013-05-10 08:21:00,52.5,23.5,30.20,North,357,8.1,8.1,32,0.00,,---,0.00,VWS V14.01,2013-05-10 14:21:00,
2013-05-10 08:23:00,52.5,23.5,30.20,NNW,340,8.7,10.1,32,0.00,,---,0.00,VWS V14.01,2013-05-10 14:23:00,
2013-05-10 08:26:00,52.3,23.4,30.20,North,0,9.2,10.1,32,0.00,,---,0.00,VWS V14.01,2013-05-10 14:26:00,
2013-05-10 08:27:00,52.3,23.4,30.20,North,357,6.3,12.3,32,0.00,,---,0.00,VWS V14.01,2013-05-10 14:27:00,
2013-05-10 08:28:00,52.2,23.2,30.20,North,5,3.1,12.3,32,0.00,,---,0.00,VWS V14.01,2013-05-10 14:28:00,
2013-05-10 08:29:00,52.2,23.2,30.20,North,357,4.9,12.3,32,0.00,,---,0.00,VWS V14.01,2013-05-10 14:29:00,
2013-05-10 08:31:00,52.2,23.2,30.20,North,357,5.4,8.1,32,0.00,,---,0.00,VWS V14.01,2013-05-10 14:31:00,
2013-05-10 08:32:00,52.0,23.8,30.20,North,357,8.1,9.2,33,0.00,,---,0.00,VWS V14.01,2013-05-10 14:32:00,
2013-05-10 08:34:00,51.8,23.6,30.20,North,0,11.0,11.0,33,0.00,,---,0.00,VWS V14.01,2013-05-10 14:34:00,
2013-05-10 08:36:00,51.4,23.3,30.20,North,357,10.1,11.0,33,0.00,,---,0.00,VWS V14.01,2013-05-10 14:36:00,
2013-05-10 08:37:00,51.4,24.0,30.20,North,0,7.6,11.0,34,0.00,,---,0.00,VWS V14.01,2013-05-10 14:37:00,
2013-05-10 08:38:00,51.4,24.0,30.20,North,357,8.1,11.0,34,0.00,,---,0.00,VWS V14.01,2013-05-10 14:38:00,
2013-05-10 08:39:00,51.4,24.0,30.20,North,0,8.1,11.0,34,0.00,,---,0.00,VWS V14.01,2013-05-10 14:39:00,
2013-05-10 08:41:00,51.3,23.9,30.20,North,0,8.3,11.0,34,0.00,,---,0.00,VWS V14.01,2013-05-10 14:41:00,
2013-05-10 08:42:00,51.3,23.9,30.20,NNE,15,4.0,11.0,34,0.00,,---,0.00,VWS V14.01,2013-05-10 14:42:00,
2013-05-10 08:43:00,51.3,23.9,30.20,NNW,332,7.2,11.0,34,0.00,,---,0.00,VWS V14.01,2013-05-10 14:43:00,
2013-05-10 08:44:00,51.3,23.9,30.20,NNW,335,7.2,11.0,34,0.00,,---,0.00,VWS V14.01,2013-05-10 14:44:00,
2013-05-10 08:46:00,51.4,24.7,30.23,NNW,328,5.4,5.4,35,0.00,,---,0.00,VWS V14.01,2013-05-10 14:46:00,
2013-05-10 08:47:00,51.4,24.7,30.23,NNW,328,2.7,5.4,35,0.00,,---,0.00,VWS V14.01,2013-05-10 14:47:00,
2013-05-10 08:48:00,51.6,24.9,30.23,NNW,327,4.0,5.8,35,0.00,,---,0.00,VWS V14.01,2013-05-10 14:48:00,
2013-05-10 08:49:00,51.6,24.9,30.23,NNW,343,4.0,5.8,35,0.00,,---,0.00,VWS V14.01,2013-05-10 14:49:00,
2013-05-10 08:50:00,51.6,24.9,30.23,NNE,20,5.8,5.8,35,0.00,,---,0.00,VWS V14.01,2013-05-10 14:50:00,
2013-05-10 08:51:00,51.8,24.3,30.23,NNW,344,6.3,8.1,34,0.00,,---,0.00,VWS V14.01,2013-05-10 14:51:00,
2013-05-10 08:53:00,51.8,24.3,30.23,North,0,8.3,8.3,34,0.00,,---,0.00,VWS V14.01,2013-05-10 14:53:00,
2013-05-10 08:54:00,52.0,24.5,30.23,NNW,330,3.1,11.0,34,0.00,,---,0.00,VWS V14.01,2013-05-10 14:54:00,
2013-05-10 08:55:00,52.0,24.5,30.23,NNW,334,3.1,11.0,34,0.00,,---,0.00,VWS V14.01,2013-05-10 14:55:00,
2013-05-10 08:57:00,52.2,24.7,30.23,North,0,3.1,11.0,34,0.00,,---,0.00,VWS V14.01,2013-05-10 14:57:00,
2013-05-10 08:58:00,52.3,24.8,30.23,NNW,342,8.7,11.0,34,0.00,,---,0.00,VWS V14.01,2013-05-10 14:58:00,
2013-05-10 08:59:00,52.5,25.0,30.23,North,0,4.0,11.0,34,0.00,,---,0.00,VWS V14.01,2013-05-10 14:59:00,
2013-05-10 09:00:00,52.5,25.0,30.23,North,6,5.8,11.0,34,0.00,,---,0.00,VWS V14.01,2013-05-10 15:00:00,
2013-05-10 09:02:00,52.7,24.4,30.23,NNW,333,4.0,10.1,33,0.00,,---,0.00,VWS V14.01,2013-05-10 15:02:00,
2013-05-10 09:03:00,52.7,24.4,30.23,North,353,3.6,10.1,33,0.00,,---,0.00,VWS V14.01,2013-05-10 15:03:00,
2013-05-10 09:04:00,52.7,24.4,30.23,North,0,5.4,10.1,33,0.00,,---,0.00,VWS V14.01,2013-05-10 15:04:00,
2013-05-10 09:05:00,52.7,24.4,30.23,North,353,5.4,10.1,33,0.00,,---,0.00,VWS V14.01,2013-05-10 15:05:00,
2013-05-10 09:07:00,52.7,25.1,30.23,NNW,329,5.4,10.1,34,0.00,,---,0.00,VWS V14.01,2013-05-10 15:07:00,
2013-05-10 09:08:00,52.7,25.1,30.23,North,353,4.0,10.1,34,0.00,,---,0.00,VWS V14.01,2013-05-10 15:08:00,
2013-05-10 09:09:00,52.7,25.1,30.23,North,5,8.3,10.1,34,0.00,,---,0.00,VWS V14.01,2013-05-10 15:09:00,
2013-05-10 09:10:00,52.7,24.4,30.23,North,353,7.2,10.1,33,0.00,,---,0.00,VWS V14.01,2013-05-10 15:10:00,
2013-05-10 09:12:00,52.7,25.1,30.23,North,0,3.1,10.1,34,0.00,,---,0.00,VWS V14.01,2013-05-10 15:12:00,
2013-05-10 09:14:00,52.7,24.4,30.23,North,0,6.3,10.1,33,0.00,,---,0.00,VWS V14.01,2013-05-10 15:14:00,
2013-05-10 09:15:00,52.7,24.4,30.23,North,1,6.3,6.3,33,0.00,,---,0.00,VWS V14.01,2013-05-10 15:15:00,
2013-05-10 09:16:00,52.5,24.3,30.23,NNW,334,6.3,11.0,33,0.00,,---,0.00,VWS V14.01,2013-05-10 15:16:00,
2013-05-10 09:17:00,52.5,24.3,30.23,North,2,4.0,11.0,33,0.00,,---,0.00,VWS V14.01,2013-05-10 15:17:00,
2013-05-10 09:19:00,52.5,25.0,30.23,NNW,330,3.1,11.0,34,0.00,,---,0.00,VWS V14.01,2013-05-10 15:19:00,
2013-05-10 09:20:00,52.7,25.1,30.23,North,353,5.4,11.0,34,0.00,,---,0.00,VWS V14.01,2013-05-10 15:20:00,
2013-05-10 09:21:00,52.9,24.6,30.23,North,6,6.3,11.0,33,0.00,,---,0.00,VWS V14.01,2013-05-10 15:21:00,
2013-05-10 09:23:00,52.7,24.4,30.23,North,10,8.3,11.0,33,0.00,,---,0.00,VWS V14.01,2013-05-10 15:23:00,
2013-05-10 09:24:00,52.5,24.3,30.23,North,353,8.7,12.8,33,0.00,,---,0.00,VWS V14.01,2013-05-10 15:24:00,
2013-05-10 09:25:00,52.2,24.0,30.23,North,353,7.6,12.8,33,0.00,,---,0.00,VWS V14.01,2013-05-10 15:25:00,
2013-05-10 09:26:00,52.0,23.8,30.23,NNW,346,8.1,12.8,33,0.00,,---,0.00,VWS V14.01,2013-05-10 15:26:00,
2013-05-10 09:28:00,51.6,24.2,30.23,NNW,340,5.8,12.8,34,0.00,,---,0.00,VWS V14.01,2013-05-10 15:28:00,
2013-05-10 09:29:00,51.6,24.2,30.23,North,353,8.1,12.8,34,0.00,,---,0.00,VWS V14.01,2013-05-10 15:29:00,
2013-05-10 09:30:00,51.6,24.2,30.23,North,357,10.5,10.5,34,0.00,,---,0.00,VWS V14.01,2013-05-10 15:30:00,
2013-05-10 09:31:00,51.6,24.2,30.23,NNW,343,8.7,10.5,34,0.00,,---,0.00,VWS V14.01,2013-05-10 15:31:00,
2013-05-10 09:33:00,51.6,24.2,30.23,NW,320,3.6,11.4,34,0.00,,---,0.00,VWS V14.01,2013-05-10 15:33:00,
2013-05-10 09:34:00,51.4,24.7,30.23,NNW,328,4.0,11.4,35,0.00,,---,0.00,VWS V14.01,2013-05-10 15:34:00,
2013-05-10 09:36:00,51.6,24.9,30.23,North,0,5.8,11.4,35,0.00,,---,0.00,VWS V14.01,2013-05-10 15:36:00,
2013-05-10 09:37:00,51.8,24.3,30.23,NW,307,6.3,11.4,34,0.00,,---,0.00,VWS V14.01,2013-05-10 15:37:00,
2013-05-10 09:39:00,52.0,24.5,30.23,North,353,9.2,11.4,34,0.00,,---,0.00,VWS V14.01,2013-05-10 15:39:00,
2013-05-10 09:40:00,52.0,24.5,30.23,North,0,4.9,11.4,34,0.00,,---,0.00,VWS V14.01,2013-05-10 15:40:00,
2013-05-10 09:41:00,51.8,24.3,30.23,North,6,6.3,11.4,34,0.00,,---,0.00,VWS V14.01,2013-05-10 15:41:00,
2013-05-10 09:42:00,51.3,23.9,30.23,NW,322,6.3,11.4,34,0.00,,---,0.00,VWS V14.01,2013-05-10 15:42:00,
2013-05-10 09:44:00,50.9,24.2,30.23,NNW,344,5.4,11.4,35,0.00,,---,0.00,VWS V14.01,2013-05-10 15:44:00,
2013-05-10 09:45:00,50.7,24.1,30.23,NNE,15,6.3,6.3,35,0.00,,---,0.00,VWS V14.01,2013-05-10 15:45:00,
2013-05-10 09:46:00,50.5,24.6,30.26,North,350,8.3,8.3,36,0.00,,---,0.00,VWS V14.01,2013-05-10 15:46:00,
2013-05-10 09:47:00,50.4,24.4,30.26,NNW,336,6.7,8.7,36,0.00,,---,0.00,VWS V14.01,2013-05-10 15:47:00,
2013-05-10 09:50:00,50.5,24.6,30.26,ENE,63,6.3,8.7,36,0.00,,---,0.00,VWS V14.01,2013-05-10 15:50:00,
2013-05-10 09:51:00,50.7,24.8,30.26,North,357,8.3,10.1,36,0.00,,---,0.00,VWS V14.01,2013-05-10 15:51:00,
2013-05-10 09:52:00,50.9,24.9,30.26,North,349,5.4,10.1,36,0.00,,---,0.00,VWS V14.01,2013-05-10 15:52:00,
2013-05-10 09:55:00,51.4,25.4,30.26,North,0,5.8,10.1,36,0.00,,---,0.00,VWS V14.01,2013-05-10 15:55:00,
2013-05-10 09:56:00,51.6,25.6,30.26,NNW,329,3.6,10.1,36,0.00,,---,0.00,VWS V14.01,2013-05-10 15:56:00,
2013-05-10 09:57:00,51.6,25.6,30.26,NNW,330,5.4,10.1,36,0.00,,---,0.00,VWS V14.01,2013-05-10 15:57:00,
2013-05-10 09:58:00,51.6,25.6,30.26,North,11,10.1,10.1,36,0.00,,---,0.00,VWS V14.01,2013-05-10 15:58:00,
2013-05-10 10:00:00,52.2,24.7,30.26,NNE,17,8.7,8.7,34,0.00,,---,0.00,VWS V14.01,2013-05-10 16:00:00,
2013-05-10 10:02:00,52.2,24.7,30.26,NW,313,4.9,8.7,34,0.00,,---,0.00,VWS V14.01,2013-05-10 16:02:00,
2013-05-10 10:03:00,52.2,24.7,30.26,North,10,6.3,8.7,34,0.00,,---,0.00,VWS V14.01,2013-05-10 16:03:00,
2013-05-10 10:05:00,52.2,24.7,30.26,North,0,5.8,8.7,34,0.00,,---,0.00,VWS V14.01,2013-05-10 16:05:00,
2013-05-10 10:07:00,52.3,24.1,30.26,North,0,4.0,9.6,33,0.00,,---,0.00,VWS V14.01,2013-05-10 16:07:00,
2013-05-10 10:08:00,52.5,25.0,30.26,NNW,340,4.9,9.6,34,0.00,,---,0.00,VWS V14.01,2013-05-10 16:08:00,
2013-05-10 10:10:00,52.7,24.4,30.26,WNW,294,4.0,9.6,33,0.00,,---,0.00,VWS V14.01,2013-05-10 16:10:00,
2013-05-10 10:11:00,52.7,24.4,30.26,NW,306,4.0,9.6,33,0.00,,---,0.00,VWS V14.01,2013-05-10 16:11:00,
2013-05-10 10:12:00,52.9,24.6,30.26,North,357,5.8,9.6,33,0.00,,---,0.00,VWS V14.01,2013-05-10 16:12:00,
2013-05-10 10:13:00,52.9,24.6,30.26,NNW,331,5.8,9.6,33,0.00,,---,0.00,VWS V14.01,2013-05-10 16:13:00,
2013-05-10 10:16:00,52.9,24.6,30.26,North,357,6.7,8.1,33,0.00,,---,0.00,VWS V14.01,2013-05-10 16:16:00,
2013-05-10 10:17:00,52.9,24.6,30.26,North,350,6.3,8.1,33,0.00,,---,0.00,VWS V14.01,2013-05-10 16:17:00,
2013-05-10 10:18:00,52.9,24.6,30.26,North,9,5.8,8.1,33,0.00,,---,0.00,VWS V14.01,2013-05-10 16:18:00,
2013-05-10 10:21:00,52.9,24.6,30.26,NNW,327,3.6,8.7,33,0.00,,---,0.00,VWS V14.01,2013-05-10 16:21:00,
2013-05-10 10:22:00,53.1,25.5,30.26,North,11,5.4,8.7,34,0.00,,---,0.00,VWS V14.01,2013-05-10 16:22:00,
2013-05-10 10:23:00,53.2,24.9,30.26,NNW,327,5.4,8.7,33,0.00,,---,0.00,VWS V14.01,2013-05-10 16:23:00,
2013-05-10 10:27:00,53.8,24.6,30.26,NW,325,6.3,8.7,32,0.00,,---,0.00,VWS V14.01,2013-05-10 16:27:00,
2013-05-10 10:28:00,53.8,23.9,30.26,NNW,346,6.3,8.7,31,0.00,,---,0.00,VWS V14.01,2013-05-10 16:28:00,
2013-05-10 10:29:00,53.6,23.7,30.26,North,353,5.8,8.7,31,0.00,,---,0.00,VWS V14.01,2013-05-10 16:29:00,
2013-05-10 10:32:00,53.4,24.3,30.26,North,0,7.6,8.1,32,0.00,,---,0.00,VWS V14.01,2013-05-10 16:32:00,
2013-05-10 10:33:00,53.4,24.3,30.26,NNW,339,4.9,8.1,32,0.00,,---,0.00,VWS V14.01,2013-05-10 16:33:00,
2013-05-10 10:34:00,53.4,25.1,30.26,North,0,4.0,8.1,33,0.00,,---,0.00,VWS V14.01,2013-05-10 16:34:00,
2013-05-10 10:37:00,53.4,24.3,30.26,North,5,5.8,8.3,32,0.00,,---,0.00,VWS V14.01,2013-05-10 16:37:00,
2013-05-10 10:38:00,53.6,24.5,30.26,North,357,4.0,8.3,32,0.00,,---,0.00,VWS V14.01,2013-05-10 16:38:00,
2013-05-10 10:39:00,53.6,24.5,30.26,NW,309,4.0,8.3,32,0.00,,---,0.00,VWS V14.01,2013-05-10 16:39:00,
2013-05-10 10:42:00,54.3,24.4,30.26,NNW,332,5.4,8.3,31,0.00,,---,0.00,VWS V14.01,2013-05-10 16:42:00,
2013-05-10 10:43:00,54.5,24.5,30.26,North,2,4.0,8.3,31,0.00,,---,0.00,VWS V14.01,2013-05-10 16:43:00,
2013-05-10 10:44:00,54.5,24.5,30.26,North,1,5.4,8.3,31,0.00,,---,0.00,VWS V14.01,2013-05-10 16:44:00,
2013-05-10 10:47:00,54.5,24.5,30.26,North,4,5.4,5.8,31,0.00,,---,0.00,VWS V14.01,2013-05-10 16:47:00,
2013-05-10 10:48:00,54.5,24.5,30.26,NNW,333,3.6,5.8,31,0.00,,---,0.00,VWS V14.01,2013-05-10 16:48:00,
2013-05-10 10:49:00,54.5,24.5,30.26,NNW,348,3.6,5.8,31,0.00,,---,0.00,VWS V14.01,2013-05-10 16:49:00,
2013-05-10 10:50:00,54.5,24.5,30.26,NNW,336,5.8,6.3,31,0.00,,---,0.00,VWS V14.01,2013-05-10 16:50:00,
2013-05-10 10:52:00,54.5,23.7,30.26,North,357,5.8,6.3,30,0.00,,---,0.00,VWS V14.01,2013-05-10 16:52:00,
2013-05-10 10:53:00,54.3,23.6,30.26,NNW,348,5.8,10.5,30,0.00,,---,0.00,VWS V14.01,2013-05-10 16:53:00,
2013-05-10 10:54:00,54.1,24.2,30.26,NNW,338,4.0,10.5,31,0.00,,---,0.00,VWS V14.01,2013-05-10 16:54:00,
2013-05-10 10:55:00,54.1,23.4,30.26,NW,325,3.1,10.5,30,0.00,,---,0.00,VWS V14.01,2013-05-10 16:55:00,
2013-05-10 10:56:00,54.1,23.4,30.26,North,11,2.7,10.5,30,0.00,,---,0.00,VWS V14.01,2013-05-10 16:56:00,
2013-05-10 10:58:00,54.3,24.4,30.26,NW,313,4.0,10.5,31,0.00,,---,0.00,VWS V14.01,2013-05-10 16:58:00,
2013-05-10 10:59:00,54.3,23.6,30.26,North,5,3.6,10.5,30,0.00,,---,0.00,VWS V14.01,2013-05-10 16:59:00,
2013-05-10 11:00:00,54.5,23.7,30.26,NNW,342,6.3,6.3,30,0.00,,---,0.00,VWS V14.01,2013-05-10 17:00:00,
2013-05-10 11:01:00,54.5,23.7,30.26,North,353,6.7,8.1,30,0.00,,---,0.00,VWS V14.01,2013-05-10 17:01:00,
2013-05-10 11:03:00,54.3,23.6,30.26,North,353,5.4,8.1,30,0.00,,---,0.00,VWS V14.01,2013-05-10 17:03:00,
2013-05-10 11:04:00,54.1,23.4,30.26,NNE,15,7.2,8.1,30,0.00,,---,0.00,VWS V14.01,2013-05-10 17:04:00,
2013-05-10 11:05:00,54.1,24.2,30.26,North,353,6.3,8.3,31,0.00,,---,0.00,VWS V14.01,2013-05-10 17:05:00,
2013-05-10 11:06:00,54.1,24.2,30.26,North,4,5.4,8.3,31,0.00,,---,0.00,VWS V14.01,2013-05-10 17:06:00,
2013-05-10 11:08:00,54.3,23.6,30.26,North,2,6.7,8.3,30,0.00,,---,0.00,VWS V14.01,2013-05-10 17:08:00,
2013-05-10 11:09:00,54.1,23.4,30.26,North,357,8.1,8.3,30,0.00,,---,0.00,VWS V14.01,2013-05-10 17:09:00,
2013-05-10 11:10:00,54.0,24.0,30.26,North,0,6.3,8.3,31,0.00,,---,0.00,VWS V14.01,2013-05-10 17:10:00,
2013-05-10 11:12:00,53.8,23.9,30.26,North,6,3.1,8.3,31,0.00,,---,0.00,VWS V14.01,2013-05-10 17:12:00,
2013-05-10 11:14:00,53.8,23.9,30.26,NW,311,2.7,8.3,31,0.00,,---,0.00,VWS V14.01,2013-05-10 17:14:00,
2013-05-10 11:15:00,54.0,23.2,30.26,North,350,3.6,4.0,30,0.00,,---,0.00,VWS V14.01,2013-05-10 17:15:00,
2013-05-10 11:17:00,54.1,24.2,30.26,NNW,328,4.0,6.3,31,0.00,,---,0.00,VWS V14.01,2013-05-10 17:17:00,
2013-05-10 11:19:00,54.5,23.7,30.26,NNW,332,3.1,6.3,30,0.00,,---,0.00,VWS V14.01,2013-05-10 17:19:00,
2013-05-10 11:20:00,54.5,23.7,30.26,NNW,340,2.7,6.3,30,0.00,,---,0.00,VWS V14.01,2013-05-10 17:20:00,
2013-05-10 11:21:00,54.5,23.7,30.26,North,0,3.6,6.3,30,0.00,,---,0.00,VWS V14.01,2013-05-10 17:21:00,
2013-05-10 11:23:00,54.7,23.9,30.26,North,10,7.6,7.6,30,0.00,,---,0.00,VWS V14.01,2013-05-10 17:23:00,
2013-05-10 11:24:00,54.7,23.9,30.26,NNE,20,4.5,8.3,30,0.00,,---,0.00,VWS V14.01,2013-05-10 17:24:00,
2013-05-10 11:25:00,54.7,23.9,30.26,North,7,4.9,8.3,30,0.00,,---,0.00,VWS V14.01,2013-05-10 17:25:00,
2013-05-10 11:26:00,54.7,23.9,30.26,NNE,14,4.9,8.3,30,0.00,,---,0.00,VWS V14.01,2013-05-10 17:26:00,
2013-05-10 11:28:00,54.5,24.5,30.26,NNE,18,5.4,8.3,31,0.00,,---,0.00,VWS V14.01,2013-05-10 17:28:00,
2013-05-10 11:30:00,54.7,23.9,30.26,NNE,18,5.8,8.3,30,0.00,,---,0.00,VWS V14.01,2013-05-10 17:30:00,
2013-05-10 11:31:00,54.9,24.0,30.26,North,11,5.4,5.8,30,0.00,,---,0.00,VWS V14.01,2013-05-10 17:31:00,
2013-05-10 11:33:00,54.7,23.9,30.26,NNE,28,4.0,7.6,30,0.00,,---,0.00,VWS V14.01,2013-05-10 17:33:00,
2013-05-10 11:35:00,54.7,24.7,30.26,North,349,0.0,7.6,31,0.00,,---,0.00,VWS V14.01,2013-05-10 17:35:00,
2013-05-10 11:37:00,54.7,24.7,30.26,North,0,5.4,7.6,31,0.00,,---,0.00,VWS V14.01,2013-05-10 17:37:00,
2013-05-10 11:38:00,54.9,24.0,30.26,North,357,4.9,7.6,30,0.00,,---,0.00,VWS V14.01,2013-05-10 17:38:00,
2013-05-10 11:40:00,54.9,24.0,30.26,NNE,28,5.8,7.6,30,0.00,,---,0.00,VWS V14.01,2013-05-10 17:40:00,
2013-05-10 11:41:00,54.9,24.0,30.26,North,11,5.4,7.6,30,0.00,,---,0.00,VWS V14.01,2013-05-10 17:41:00,
2013-05-10 11:42:00,54.9,24.0,30.26,NW,320,4.5,7.6,30,0.00,,---,0.00,VWS V14.01,2013-05-10 17:42:00,
2013-05-10 11:43:00,55.0,24.2,30.26,North,353,3.6,7.6,30,0.00,,---,0.00,VWS V14.01,2013-05-10 17:43:00,
2013-05-10 11:46:00,55.2,24.4,30.26,NNE,20,5.4,6.3,30,0.00,,---,0.00,VWS V14.01,2013-05-10 17:46:00,
2013-05-10 11:47:00,55.2,24.4,30.26,NW,325,4.9,7.2,30,0.00,,---,0.00,VWS V14.01,2013-05-10 17:47:00,
2013-05-10 11:48:00,55.2,24.4,30.26,WNW,299,3.6,7.2,30,0.00,,---,0.00,VWS V14.01,2013-05-10 17:48:00,
2013-05-10 11:51:00,55.6,24.7,30.26,North,353,4.0,8.7,30,0.00,,---,0.00,VWS V14.01,2013-05-10 17:51:00,
2013-05-10 11:52:00,55.8,24.0,30.26,North,8,6.3,8.7,29,0.00,,---,0.00,VWS V14.01,2013-05-10 17:52:00,
2013-05-10 11:53:00,55.8,24.8,30.26,North,357,3.1,8.7,30,0.00,,---,0.00,VWS V14.01,2013-05-10 17:53:00,
2013-05-10 11:56:00,55.8,24.0,30.26,WNW,300,2.7,8.7,29,0.00,,---,0.00,VWS V14.01,2013-05-10 17:56:00,
2013-05-10 11:57:00,55.8,24.0,30.26,WNW,292,3.6,8.7,29,0.00,,---,0.00,VWS V14.01,2013-05-10 17:57:00,
2013-05-10 11:58:00,55.8,24.0,30.26,NW,318,2.2,8.7,29,0.00,,---,0.00,VWS V14.01,2013-05-10 17:58:00,
2013-05-10 12:01:00,55.8,24.0,30.26,North,357,5.4,6.7,29,0.00,,---,0.00,VWS V14.01,2013-05-10 18:01:00,
2013-05-10 12:02:00,55.8,24.0,30.26,North,353,5.4,6.7,29,0.00,,---,0.00,VWS V14.01,2013-05-10 18:02:00,
2013-05-10 12:03:00,55.8,24.8,30.26,NNE,24,4.0,6.7,30,0.00,,---,0.00,VWS V14.01,2013-05-10 18:03:00,
2013-05-10 12:06:00,56.3,25.3,30.26,West,266,3.1,6.7,30,0.00,,---,0.00,VWS V14.01,2013-05-10 18:06:00,
2013-05-10 12:07:00,56.3,25.3,30.26,NNE,18,5.8,6.7,30,0.00,,---,0.00,VWS V14.01,2013-05-10 18:07:00,
2013-05-10 12:08:00,56.3,24.5,30.26,North,0,2.7,6.7,29,0.00,,---,0.00,VWS V14.01,2013-05-10 18:08:00,
2013-05-10 12:09:00,56.5,25.4,30.26,WNW,294,2.2,6.7,30,0.00,,---,0.00,VWS V14.01,2013-05-10 18:09:00,
2013-05-10 12:12:00,56.7,24.8,30.26,North,353,6.3,6.7,29,0.00,,---,0.00,VWS V14.01,2013-05-10 18:12:00,
2013-05-10 12:13:00,56.7,24.8,30.26,WNW,300,4.9,6.7,29,0.00,,---,0.00,VWS V14.01,2013-05-10 18:13:00,
2013-05-10 12:14:00,56.7,24.8,30.26,WNW,301,3.6,6.7,29,0.00,,---,0.00,VWS V14.01,2013-05-10 18:14:00,
2013-05-10 12:17:00,56.8,24.1,30.26,West,274,0.0,3.1,28,0.00,,---,0.00,VWS V14.01,2013-05-10 18:17:00,
2013-05-10 12:18:00,56.8,24.9,30.26,West,267,3.1,4.5,29,0.00,,---,0.00,VWS V14.01,2013-05-10 18:18:00,
2013-05-10 12:19:00,56.8,24.1,30.26,SSW,202,4.9,4.9,28,0.00,,---,0.00,VWS V14.01,2013-05-10 18:19:00,
2013-05-10 12:22:00,56.8,24.1,30.26,NE,44,2.7,5.4,28,0.00,,---,0.00,VWS V14.01,2013-05-10 18:22:00,
2013-05-10 12:23:00,56.8,24.9,30.26,NE,34,2.7,5.4,29,0.00,,---,0.00,VWS V14.01,2013-05-10 18:23:00,
2013-05-10 12:24:00,56.8,24.9,30.26,NNE,19,4.0,5.4,29,0.00,,---,0.00,VWS V14.01,2013-05-10 18:24:00,
2013-05-10 12:28:00,57.2,24.4,30.26,NNW,342,3.1,6.7,28,0.00,,---,0.00,VWS V14.01,2013-05-10 18:28:00,
2013-05-10 12:29:00,57.4,24.6,30.26,North,357,4.5,6.7,28,0.00,,---,0.00,VWS V14.01,2013-05-10 18:29:00,
2013-05-10 12:33:00,57.0,23.4,30.26,North,357,3.1,4.0,27,0.00,,---,0.00,VWS V14.01,2013-05-10 18:33:00,
2013-05-10 12:34:00,57.0,25.1,30.26,North,8,2.2,4.0,29,0.00,,---,0.00,VWS V14.01,2013-05-10 18:34:00,
2013-05-10 12:35:00,57.0,24.3,30.26,North,10,0.0,4.0,28,0.00,,---,0.00,VWS V14.01,2013-05-10 18:35:00,
2013-05-10 12:38:00,57.2,24.4,30.26,NE,54,3.1,4.0,28,0.00,,---,0.00,VWS V14.01,2013-05-10 18:38:00,
2013-05-10 12:39:00,57.4,23.7,30.26,ENE,75,0.0,4.0,27,0.00,,---,0.00,VWS V14.01,2013-05-10 18:39:00,
2013-05-10 12:40:00,57.6,24.7,30.26,NE,38,2.7,4.0,28,0.00,,---,0.00,VWS V14.01,2013-05-10 18:40:00,
2013-05-10 12:43:00,57.7,24.9,30.26,North,357,5.4,6.3,28,0.00,,---,0.00,VWS V14.01,2013-05-10 18:43:00,
2013-05-10 12:44:00,57.9,25.0,30.26,NW,321,2.7,6.3,28,0.00,,---,0.00,VWS V14.01,2013-05-10 18:44:00,
2013-05-10 12:45:00,57.9,24.2,30.26,NNW,337,5.8,5.8,27,0.00,,---,0.00,VWS V14.01,2013-05-10 18:45:00,
2013-05-10 12:48:00,58.1,25.2,30.23,North,0,7.6,8.3,28,0.00,,---,0.00,VWS V14.01,2013-05-10 18:48:00,
2013-05-10 12:50:00,57.9,24.2,30.23,NNW,327,4.0,8.3,27,0.00,,---,0.00,VWS V14.01,2013-05-10 18:50:00,
2013-05-10 12:51:00,57.9,24.2,30.23,NNE,33,7.6,8.3,27,0.00,,---,0.00,VWS V14.01,2013-05-10 18:51:00,
2013-05-10 12:53:00,57.9,24.2,30.23,North,353,6.7,8.7,27,0.00,,---,0.00,VWS V14.01,2013-05-10 18:53:00,
2013-05-10 12:55:00,57.7,24.0,30.23,North,3,4.0,8.7,27,0.00,,---,0.00,VWS V14.01,2013-05-10 18:55:00,
2013-05-10 12:56:00,57.6,23.9,30.23,North,10,4.0,8.7,27,0.00,,---,0.00,VWS V14.01,2013-05-10 18:56:00,
2013-05-10 12:58:00,57.6,23.9,30.23,North,0,3.6,8.7,27,0.00,,---,0.00,VWS V14.01,2013-05-10 18:58:00,
2013-05-10 13:00:00,57.7,24.0,30.23,NNW,333,4.5,6.3,27,0.00,,---,0.00,VWS V14.01,2013-05-10 19:00:00,
2013-05-10 13:01:00,57.7,24.0,30.23,North,1,5.4,6.3,27,0.00,,---,0.00,VWS V14.01,2013-05-10 19:01:00,
2013-05-10 13:03:00,57.7,24.0,30.23,NNW,338,4.0,8.1,27,0.00,,---,0.00,VWS V14.01,2013-05-10 19:03:00,
2013-05-10 13:04:00,57.7,24.0,30.23,NNW,338,2.2,8.1,27,0.00,,---,0.00,VWS V14.01,2013-05-10 19:04:00,
2013-05-10 13:06:00,57.9,25.0,30.23,North,5,2.7,8.1,28,0.00,,---,0.00,VWS V14.01,2013-05-10 19:06:00,
2013-05-10 13:08:00,58.3,24.5,30.23,North,353,3.1,8.1,27,0.00,,---,0.00,VWS V14.01,2013-05-10 19:08:00,
2013-05-10 13:09:00,58.3,24.5,30.23,NNW,346,4.0,8.1,27,0.00,,---,0.00,VWS V14.01,2013-05-10 19:09:00,
2013-05-10 13:11:00,58.6,24.8,30.23,South,169,2.7,8.1,27,0.00,,---,0.00,VWS V14.01,2013-05-10 19:11:00,
2013-05-10 13:12:00,58.5,24.6,30.23,SW,214,2.7,8.1,27,0.00,,---,0.00,VWS V14.01,2013-05-10 19:12:00,
2013-05-10 13:14:00,58.6,24.8,30.23,NW,323,2.7,8.1,27,0.00,,---,0.00,VWS V14.01,2013-05-10 19:14:00,
2013-05-10 13:16:00,58.8,24.9,30.23,North,357,3.6,6.3,27,0.00,,---,0.00,VWS V14.01,2013-05-10 19:16:00,
2013-05-10 13:17:00,58.8,25.8,30.23,NNE,13,4.0,6.3,28,0.00,,---,0.00,VWS V14.01,2013-05-10 19:17:00,
2013-05-10 13:18:00,58.8,25.8,30.23,North,11,3.6,6.3,28,0.00,,---,0.00,VWS V14.01,2013-05-10 19:18:00,
2013-05-10 13:19:00,58.8,24.9,30.23,ESE,114,3.6,6.3,27,0.00,,---,0.00,VWS V14.01,2013-05-10 19:19:00,
2013-05-10 13:20:00,58.8,24.9,30.23,East,89,2.7,6.3,27,0.00,,---,0.00,VWS V14.01,2013-05-10 19:20:00,
2013-05-10 13:22:00,59.0,25.1,30.23,North,357,5.4,6.3,27,0.00,,---,0.00,VWS V14.01,2013-05-10 19:22:00,
2013-05-10 13:23:00,59.0,25.1,30.23,ENE,78,2.7,7.6,27,0.00,,---,0.00,VWS V14.01,2013-05-10 19:23:00,
2013-05-10 13:24:00,59.0,25.1,30.23,North,9,3.6,7.6,27,0.00,,---,0.00,VWS V14.01,2013-05-10 19:24:00,
2013-05-10 13:25:00,59.2,25.2,30.23,North,5,4.9,7.6,27,0.00,,---,0.00,VWS V14.01,2013-05-10 19:25:00,
2013-05-10 13:30:00,59.2,24.3,30.23,NNE,17,2.7,7.6,26,0.00,,---,0.00,VWS V14.01,2013-05-10 19:30:00,
2013-05-10 13:31:00,59.2,24.3,30.23,North,9,0.0,3.1,26,0.00,,---,0.00,VWS V14.01,2013-05-10 19:31:00,
2013-05-10 13:35:00,58.5,24.6,30.23,SSW,206,2.7,5.4,27,0.00,,---,0.00,VWS V14.01,2013-05-10 19:35:00,
2013-05-10 13:36:00,58.6,24.8,30.23,North,2,3.6,5.4,27,0.00,,---,0.00,VWS V14.01,2013-05-10 19:36:00,
2013-05-10 13:39:00,59.2,24.3,30.23,NNE,12,2.7,8.1,26,0.00,,---,0.00,VWS V14.01,2013-05-10 19:39:00,
2013-05-10 13:40:00,59.2,24.3,30.23,NE,35,3.1,8.1,26,0.00,,---,0.00,VWS V14.01,2013-05-10 19:40:00,
2013-05-10 13:41:00,59.2,24.3,30.23,NW,324,2.7,8.1,26,0.00,,---,0.00,VWS V14.01,2013-05-10 19:41:00,
2013-05-10 13:42:00,59.2,24.3,30.23,WNW,297,2.2,8.1,26,0.00,,---,0.00,VWS V14.01,2013-05-10 19:42:00,
2013-05-10 13:44:00,59.4,24.5,30.23,North,0,3.1,8.1,26,0.00,,---,0.00,VWS V14.01,2013-05-10 19:44:00,
2013-05-10 13:45:00,59.4,25.4,30.23,North,2,4.0,4.0,27,0.00,,---,0.00,VWS V14.01,2013-05-10 19:45:00,
2013-05-10 13:46:00,59.4,24.5,30.23,NNW,333,3.6,5.8,26,0.00,,---,0.00,VWS V14.01,2013-05-10 19:46:00,
2013-05-10 13:47:00,59.4,24.5,30.23,WNW,290,3.1,5.8,26,0.00,,---,0.00,VWS V14.01,2013-05-10 19:47:00,
2013-05-10 13:49:00,59.7,24.8,30.23,North,353,3.6,6.3,26,0.00,,---,0.00,VWS V14.01,2013-05-10 19:49:00,
2013-05-10 13:51:00,59.7,24.8,30.23,WNW,303,4.0,6.3,26,0.00,,---,0.00,VWS V14.01,2013-05-10 19:51:00,
2013-05-10 13:52:00,59.9,25.0,30.23,WNW,286,6.3,6.3,26,0.00,,---,0.00,VWS V14.01,2013-05-10 19:52:00,
2013-05-10 13:55:00,59.9,25.0,30.23,North,11,3.1,6.3,26,0.00,,---,0.00,VWS V14.01,2013-05-10 19:55:00,
2013-05-10 13:56:00,59.7,24.8,30.23,North,8,0.0,6.3,26,0.00,,---,0.00,VWS V14.01,2013-05-10 19:56:00,
2013-05-10 13:57:00,59.5,24.6,30.23,North,10,4.0,6.3,26,0.00,,---,0.00,VWS V14.01,2013-05-10 19:57:00,
2013-05-10 14:00:00,59.4,24.5,30.23,NNE,13,3.1,4.0,26,0.00,,---,0.00,VWS V14.01,2013-05-10 20:00:00,
2013-05-10 14:03:00,59.2,24.3,30.23,SSW,212,3.1,4.0,26,0.00,,---,0.00,VWS V14.01,2013-05-10 20:03:00,
2013-05-10 14:04:00,59.2,24.3,30.23,SSW,212,0.0,4.0,26,0.00,,---,0.00,VWS V14.01,2013-05-10 20:04:00,
2013-05-10 14:06:00,59.2,24.3,30.23,NNW,337,2.7,4.0,26,0.00,,---,0.00,VWS V14.01,2013-05-10 20:06:00,
2013-05-10 14:08:00,59.2,24.3,30.23,North,11,4.9,4.9,26,0.00,,---,0.00,VWS V14.01,2013-05-10 20:08:00,
2013-05-10 14:09:00,59.2,24.3,30.23,NNE,14,4.0,4.9,26,0.00,,---,0.00,VWS V14.01,2013-05-10 20:09:00,
2013-05-10 14:11:00,59.7,23.9,30.23,NNE,27,2.7,4.9,25,0.00,,---,0.00,VWS V14.01,2013-05-10 20:11:00,
2013-05-10 14:13:00,59.7,23.9,30.23,ENE,75,4.0,6.3,25,0.00,,---,0.00,VWS V14.01,2013-05-10 20:13:00,
2013-05-10 14:14:00,59.5,23.7,30.23,ENE,66,3.1,6.3,25,0.00,,---,0.00,VWS V14.01,2013-05-10 20:14:00,
2013-05-10 14:16:00,59.5,23.7,30.23,NNW,340,5.4,6.3,25,0.00,,---,0.00,VWS V14.01,2013-05-10 20:16:00,
2013-05-10 14:21:00,59.4,23.6,30.23,NNW,345,3.6,6.3,25,0.00,,---,0.00,VWS V14.01,2013-05-10 20:21:00,
2013-05-10 14:23:00,59.5,23.7,30.23,NNW,345,2.7,8.7,25,0.00,,---,0.00,VWS V14.01,2013-05-10 20:23:00,
2013-05-10 14:24:00,59.5,23.7,30.23,NNW,340,4.9,8.7,25,0.00,,---,0.00,VWS V14.01,2013-05-10 20:24:00,
2013-05-10 14:26:00,59.5,23.7,30.23,NNE,30,6.3,8.7,25,0.00,,---,0.00,VWS V14.01,2013-05-10 20:26:00,
2013-05-10 14:28:00,59.5,24.6,30.23,North,3,4.0,8.7,26,0.00,,---,0.00,VWS V14.01,2013-05-10 20:28:00,
2013-05-10 14:29:00,59.5,23.7,30.23,NNE,28,5.8,8.7,25,0.00,,---,0.00,VWS V14.01,2013-05-10 20:29:00,
2013-05-10 14:31:00,59.4,23.6,30.23,ESE,111,0.0,5.4,25,0.00,,---,0.00,VWS V14.01,2013-05-10 20:31:00,
2013-05-10 14:33:00,59.4,23.6,30.23,SE,134,3.1,5.4,25,0.00,,---,0.00,VWS V14.01,2013-05-10 20:33:00,
2013-05-10 14:34:00,59.5,23.7,30.23,North,0,4.0,5.4,25,0.00,,---,0.00,VWS V14.01,2013-05-10 20:34:00,
2013-05-10 14:36:00,59.7,23.9,30.23,NW,319,3.1,5.4,25,0.00,,---,0.00,VWS V14.01,2013-05-10 20:36:00,
2013-05-10 14:38:00,59.7,23.9,30.23,NNW,328,3.6,5.4,25,0.00,,---,0.00,VWS V14.01,2013-05-10 20:38:00,
2013-05-10 14:39:00,59.7,23.9,30.23,NNW,335,2.2,5.4,25,0.00,,---,0.00,VWS V14.01,2013-05-10 20:39:00,
2013-05-10 14:41:00,60.3,24.3,30.23,North,0,5.8,6.3,25,0.00,,---,0.00,VWS V14.01,2013-05-10 20:41:00,
2013-05-10 14:43:00,60.3,24.3,30.23,North,357,3.6,6.3,25,0.00,,---,0.00,VWS V14.01,2013-05-10 20:43:00,
2013-05-10 14:44:00,60.4,24.5,30.23,NW,315,4.0,6.3,25,0.00,,---,0.00,VWS V14.01,2013-05-10 20:44:00,
2013-05-10 14:45:00,60.4,24.5,30.23,WNW,290,4.0,6.3,25,0.00,,---,0.00,VWS V14.01,2013-05-10 20:45:00,
2013-05-10 14:47:00,60.6,24.6,30.23,West,281,4.9,4.9,25,0.00,,---,0.00,VWS V14.01,2013-05-10 20:47:00,
2013-05-10 14:49:00,60.6,24.6,30.23,SSW,209,3.1,5.4,25,0.00,,---,0.00,VWS V14.01,2013-05-10 20:49:00,
2013-05-10 14:50:00,60.4,24.5,30.23,SSW,209,2.7,5.4,25,0.00,,---,0.00,VWS V14.01,2013-05-10 20:50:00,
2013-05-10 14:52:00,60.4,24.5,30.23,North,357,2.7,5.4,25,0.00,,---,0.00,VWS V14.01,2013-05-10 20:52:00,
2013-05-10 14:54:00,60.3,24.3,30.23,NNE,15,3.1,5.4,25,0.00,,---,0.00,VWS V14.01,2013-05-10 20:54:00,
2013-05-10 14:55:00,60.3,24.3,30.23,NNE,27,3.6,5.4,25,0.00,,---,0.00,VWS V14.01,2013-05-10 20:55:00,
2013-05-10 14:57:00,60.4,24.5,30.23,North,353,2.7,5.4,25,0.00,,---,0.00,VWS V14.01,2013-05-10 20:57:00,
2013-05-10 14:59:00,60.6,24.6,30.23,NNW,332,3.6,5.4,25,0.00,,---,0.00,VWS V14.01,2013-05-10 20:59:00,
2013-05-10 15:00:00,61.0,24.9,30.23,NW,319,4.9,5.4,25,0.00,,---,0.00,VWS V14.01,2013-05-10 21:00:00,
2013-05-10 15:02:00,61.7,25.5,30.23,WSW,256,7.6,7.6,25,0.00,,---,0.00,VWS V14.01,2013-05-10 21:02:00,
2013-05-10 15:04:00,61.7,24.6,30.23,WNW,302,3.6,7.6,24,0.00,,---,0.00,VWS V14.01,2013-05-10 21:04:00,
2013-05-10 15:05:00,61.9,25.7,30.23,NW,316,2.7,7.6,25,0.00,,---,0.00,VWS V14.01,2013-05-10 21:05:00,
2013-05-10 15:06:00,61.9,25.7,30.23,NW,313,4.0,7.6,25,0.00,,---,0.00,VWS V14.01,2013-05-10 21:06:00,
2013-05-10 15:07:00,61.9,25.7,30.23,NW,314,2.2,7.6,25,0.00,,---,0.00,VWS V14.01,2013-05-10 21:07:00,
2013-05-10 15:09:00,62.1,24.9,30.23,North,357,6.3,7.6,24,0.00,,---,0.00,VWS V14.01,2013-05-10 21:09:00,
2013-05-10 15:10:00,61.9,24.7,30.23,North,5,3.6,7.6,24,0.00,,---,0.00,VWS V14.01,2013-05-10 21:10:00,
2013-05-10 15:11:00,61.9,24.7,30.23,North,1,4.0,7.6,24,0.00,,---,0.00,VWS V14.01,2013-05-10 21:11:00,
2013-05-10 15:13:00,61.5,24.4,30.23,NE,51,2.2,7.6,24,0.00,,---,0.00,VWS V14.01,2013-05-10 21:13:00,
2013-05-10 15:14:00,61.3,24.3,30.23,NNE,33,4.9,7.6,24,0.00,,---,0.00,VWS V14.01,2013-05-10 21:14:00,
2013-05-10 15:15:00,61.2,24.1,30.20,NE,50,3.1,5.4,24,0.00,,---,0.00,VWS V14.01,2013-05-10 21:15:00,
2013-05-10 15:16:00,61.2,24.1,30.20,NE,44,3.6,5.4,24,0.00,,---,0.00,VWS V14.01,2013-05-10 21:16:00,
2013-05-10 15:18:00,61.2,24.1,30.20,North,357,4.0,5.4,24,0.00,,---,0.00,VWS V14.01,2013-05-10 21:18:00,
2013-05-10 15:19:00,61.2,24.1,30.20,NE,34,5.8,6.3,24,0.00,,---,0.00,VWS V14.01,2013-05-10 21:19:00,
2013-05-10 15:21:00,61.2,24.1,30.20,NNE,18,3.6,6.3,24,0.00,,---,0.00,VWS V14.01,2013-05-10 21:21:00,
2013-05-10 15:23:00,61.2,24.1,30.20,NE,35,2.7,6.3,24,0.00,,---,0.00,VWS V14.01,2013-05-10 21:23:00,
2013-05-10 15:25:00,61.3,24.3,30.20,ENE,75,0.0,6.3,24,0.00,,---,0.00,VWS V14.01,2013-05-10 21:25:00,
2013-05-10 15:26:00,61.3,24.3,30.20,North,357,3.1,6.3,24,0.00,,---,0.00,VWS V14.01,2013-05-10 21:26:00,
2013-05-10 15:27:00,61.3,24.3,30.20,North,357,3.6,6.3,24,0.00,,---,0.00,VWS V14.01,2013-05-10 21:27:00,
2013-05-10 15:28:00,61.2,24.1,30.20,North,357,4.9,6.3,24,0.00,,---,0.00,VWS V14.01,2013-05-10 21:28:00,
2013-05-10 15:30:00,61.0,24.0,30.20,NNW,341,2.7,2.7,24,0.00,,---,0.00,VWS V14.01,2013-05-10 21:30:00,
2013-05-10 15:31:00,61.0,24.0,30.20,North,357,3.6,3.6,24,0.00,,---,0.00,VWS V14.01,2013-05-10 21:31:00,
2013-05-10 15:32:00,61.0,24.0,30.20,ESE,114,4.0,4.0,24,0.00,,---,0.00,VWS V14.01,2013-05-10 21:32:00,
2013-05-10 15:33:00,61.2,24.1,30.20,North,0,4.0,4.9,24,0.00,,---,0.00,VWS V14.01,2013-05-10 21:33:00,
2013-05-10 15:35:00,61.3,24.3,30.20,WNW,290,3.1,4.9,24,0.00,,---,0.00,VWS V14.01,2013-05-10 21:35:00,
2013-05-10 15:36:00,61.5,24.4,30.20,North,357,5.4,6.3,24,0.00,,---,0.00,VWS V14.01,2013-05-10 21:36:00,
2013-05-10 15:38:00,61.7,24.6,30.20,NNW,345,4.9,7.6,24,0.00,,---,0.00,VWS V14.01,2013-05-10 21:38:00,
2013-05-10 15:40:00,61.7,24.6,30.20,NNE,18,4.9,7.6,24,0.00,,---,0.00,VWS V14.01,2013-05-10 21:40:00,
2013-05-10 15:41:00,61.7,24.6,30.20,North,8,5.4,7.6,24,0.00,,---,0.00,VWS V14.01,2013-05-10 21:41:00,
2013-05-10 15:43:00,61.5,24.4,30.20,NNE,18,5.8,7.6,24,0.00,,---,0.00,VWS V14.01,2013-05-10 21:43:00,
2013-05-10 15:46:00,61.5,24.4,30.20,NNE,17,3.1,3.1,24,0.00,,---,0.00,VWS V14.01,2013-05-10 21:46:00,
2013-05-10 15:47:00,61.5,24.4,30.20,NNW,346,2.7,4.0,24,0.00,,---,0.00,VWS V14.01,2013-05-10 21:47:00,
2013-05-10 15:48:00,61.7,24.6,30.20,North,0,6.7,7.6,24,0.00,,---,0.00,VWS V14.01,2013-05-10 21:48:00,
2013-05-10 15:49:00,61.7,24.6,30.20,North,357,4.9,7.6,24,0.00,,---,0.00,VWS V14.01,2013-05-10 21:49:00,
2013-05-10 15:51:00,61.7,24.6,30.20,North,4,3.6,7.6,24,0.00,,---,0.00,VWS V14.01,2013-05-10 21:51:00,
2013-05-10 15:52:00,61.7,24.6,30.20,North,357,6.3,7.6,24,0.00,,---,0.00,VWS V14.01,2013-05-10 21:52:00,
2013-05-10 15:53:00,61.5,24.4,30.20,NNE,18,4.0,8.1,24,0.00,,---,0.00,VWS V14.01,2013-05-10 21:53:00,
2013-05-10 15:54:00,61.5,24.4,30.20,NE,41,3.6,8.1,24,0.00,,---,0.00,VWS V14.01,2013-05-10 21:54:00,
2013-05-10 15:56:00,61.5,24.4,30.20,NNE,14,3.1,8.1,24,0.00,,---,0.00,VWS V14.01,2013-05-10 21:56:00,
2013-05-10 15:57:00,61.5,24.4,30.20,NNE,17,3.6,8.1,24,0.00,,---,0.00,VWS V14.01,2013-05-10 21:57:00,
2013-05-10 15:58:00,61.5,24.4,30.20,NNE,15,4.9,8.1,24,0.00,,---,0.00,VWS V14.01,2013-05-10 21:58:00,
2013-05-10 16:03:00,61.7,21.4,30.23,NNE,12,3.1,5.8,21,0.00,,---,0.00,VWS V14.01,2013-05-10 22:03:00,
2013-05-10 16:08:00,62.1,21.7,30.23,North,357,4.0,5.8,21,0.00,,---,0.00,VWS V14.01,2013-05-10 22:08:00,
2013-05-10 16:09:00,62.1,21.7,30.23,North,8,4.0,5.8,21,0.00,,---,0.00,VWS V14.01,2013-05-10 22:09:00,
2013-05-10 16:13:00,62.6,24.3,30.23,North,0,5.8,6.3,23,0.00,,---,0.00,VWS V14.01,2013-05-10 22:13:00,
2013-05-10 16:14:00,62.6,22.1,30.23,NNE,19,4.9,6.3,21,0.00,,---,0.00,VWS V14.01,2013-05-10 22:14:00,
2013-05-10 16:18:00,62.2,21.9,30.23,NNW,346,4.9,6.3,21,0.00,,---,0.00,VWS V14.01,2013-05-10 22:18:00,
2013-05-10 16:19:00,62.4,25.2,30.23,NW,317,4.0,6.3,24,0.00,,---,0.00,VWS V14.01,2013-05-10 22:19:00,
2013-05-10 16:23:00,63.1,22.6,30.23,West,269,3.1,6.3,21,0.00,,---,0.00,VWS V14.01,2013-05-10 22:23:00,
2013-05-10 16:24:00,63.3,19.1,30.23,NNW,333,3.6,6.3,18,0.00,,---,0.00,VWS V14.01,2013-05-10 22:24:00,
2013-05-10 16:28:00,63.1,19.0,30.23,North,357,4.9,6.3,18,0.00,,---,0.00,VWS V14.01,2013-05-10 22:28:00,
2013-05-10 16:29:00,63.0,22.5,30.23,North,7,5.8,6.3,21,0.00,,---,0.00,VWS V14.01,2013-05-10 22:29:00,
2013-05-10 16:33:00,63.3,19.1,30.20,ENE,65,5.4,7.6,18,0.00,,---,0.00,VWS V14.01,2013-05-10 22:33:00,
2013-05-10 16:34:00,63.3,19.1,30.20,North,0,4.0,7.6,18,0.00,,---,0.00,VWS V14.01,2013-05-10 22:34:00,
2013-05-10 16:39:00,63.9,23.2,30.20,NNW,346,2.7,7.6,21,0.00,,---,0.00,VWS V14.01,2013-05-10 22:39:00,
2013-05-10 16:44:00,63.9,19.6,30.20,North,357,2.2,7.6,18,0.00,,---,0.00,VWS V14.01,2013-05-10 22:44:00,
2013-05-10 16:45:00,63.9,19.6,30.20,NNW,340,2.2,7.6,18,0.00,,---,0.00,VWS V14.01,2013-05-10 22:45:00,
2013-05-10 16:49:00,63.7,19.4,30.20,NNE,16,3.6,7.6,18,0.00,,---,0.00,VWS V14.01,2013-05-10 22:49:00,
2013-05-10 16:50:00,63.7,19.4,30.20,NNE,16,3.6,7.6,18,0.00,,---,0.00,VWS V14.01,2013-05-10 22:50:00,
2013-05-10 16:55:00,63.5,19.3,30.20,North,9,2.2,7.6,18,0.00,,---,0.00,VWS V14.01,2013-05-10 22:55:00,
2013-05-10 17:00:00,63.7,19.4,30.20,North,353,5.4,7.6,18,0.00,,---,0.00,VWS V14.01,2013-05-10 23:00:00,
2013-05-10 17:05:00,63.7,19.4,30.23,North,357,5.4,6.3,18,0.00,,---,0.00,VWS V14.01,2013-05-10 23:05:00,
2013-05-10 17:06:00,63.5,16.5,30.23,North,5,4.0,6.3,16,0.00,,---,0.00,VWS V14.01,2013-05-10 23:06:00,
2013-05-10 17:10:00,63.5,19.3,30.23,NNE,33,3.1,6.3,18,0.00,,---,0.00,VWS V14.01,2013-05-10 23:10:00,
2013-05-10 17:11:00,63.7,19.4,30.23,ENE,63,2.7,6.3,18,0.00,,---,0.00,VWS V14.01,2013-05-10 23:11:00,
2013-05-10 17:15:00,63.9,19.6,30.23,North,10,3.1,5.4,18,0.00,,---,0.00,VWS V14.01,2013-05-10 23:15:00,
2013-05-10 17:16:00,63.9,19.6,30.20,ENE,71,2.2,5.4,18,0.00,,---,0.00,VWS V14.01,2013-05-10 23:16:00,
2013-05-10 17:20:00,63.9,16.8,30.20,North,357,5.4,6.3,16,0.00,,---,0.00,VWS V14.01,2013-05-10 23:20:00,
2013-05-10 17:21:00,63.9,16.8,30.20,North,357,5.4,6.3,16,0.00,,---,0.00,VWS V14.01,2013-05-10 23:21:00,
2013-05-10 17:23:00,63.9,16.8,30.20,NNE,18,4.9,6.3,16,0.00,,---,0.00,VWS V14.01,2013-05-10 23:23:00,
2013-05-10 17:26:00,63.9,16.8,30.20,North,4,4.0,6.3,16,0.00,,---,0.00,VWS V14.01,2013-05-10 23:26:00,
2013-05-10 17:27:00,63.9,19.6,30.20,North,357,5.4,6.3,18,0.00,,---,0.00,VWS V14.01,2013-05-10 23:27:00,
2013-05-10 17:28:00,63.9,16.8,30.20,NNE,13,5.4,6.3,16,0.00,,---,0.00,VWS V14.01,2013-05-10 23:28:00,
2013-05-10 17:29:00,63.7,16.7,30.20,North,1,4.9,7.6,16,0.00,,---,0.00,VWS V14.01,2013-05-10 23:29:00,
2013-05-10 17:31:00,63.9,16.8,30.20,North,357,2.7,4.0,16,0.00,,---,0.00,VWS V14.01,2013-05-10 23:31:00,
2013-05-10 17:32:00,63.9,16.8,30.20,North,357,2.7,4.0,16,0.00,,---,0.00,VWS V14.01,2013-05-10 23:32:00,
2013-05-10 17:33:00,63.9,19.6,30.20,North,353,3.1,4.0,18,0.00,,---,0.00,VWS V14.01,2013-05-10 23:33:00,
2013-05-10 17:34:00,64.0,17.0,30.20,North,357,3.1,5.8,16,0.00,,---,0.00,VWS V14.01,2013-05-10 23:34:00,
2013-05-10 17:37:00,64.0,17.0,30.20,North,10,0.0,5.8,16,0.00,,---,0.00,VWS V14.01,2013-05-10 23:37:00,
2013-05-10 17:38:00,64.0,17.0,30.20,North,9,2.7,5.8,16,0.00,,---,0.00,VWS V14.01,2013-05-10 23:38:00,
2013-05-10 17:39:00,64.0,17.0,30.20,North,2,3.6,5.8,16,0.00,,---,0.00,VWS V14.01,2013-05-10 23:39:00,
2013-05-10 17:42:00,64.2,19.9,30.20,North,353,5.4,5.8,18,0.00,,---,0.00,VWS V14.01,2013-05-10 23:42:00,
2013-05-10 17:43:00,64.2,17.1,30.20,North,0,3.1,5.8,16,0.00,,---,0.00,VWS V14.01,2013-05-10 23:43:00,
2013-05-10 17:44:00,64.4,15.8,30.20,North,1,3.1,5.8,15,0.00,,---,0.00,VWS V14.01,2013-05-10 23:44:00,
2013-05-10 17:47:00,64.4,15.8,30.23,North,7,3.6,5.8,15,0.00,,---,0.00,VWS V14.01,2013-05-10 23:47:00,
2013-05-10 17:48:00,64.4,15.8,30.23,North,353,4.9,5.8,15,0.00,,---,0.00,VWS V14.01,2013-05-10 23:48:00,
2013-05-10 17:50:00,64.4,15.8,30.23,North,353,3.1,5.8,15,0.00,,---,0.00,VWS V14.01,2013-05-10 23:50:00,
2013-05-10 17:51:00,64.2,17.1,30.23,North,357,3.1,5.8,16,0.00,,---,0.00,VWS V14.01,2013-05-10 23:51:00,
2013-05-10 17:52:00,64.2,17.1,30.23,North,357,3.1,5.8,16,0.00,,---,0.00,VWS V14.01,2013-05-10 23:52:00,
2013-05-10 17:54:00,64.2,17.1,30.23,North,4,3.6,5.8,16,0.00,,---,0.00,VWS V14.01,2013-05-10 23:54:00,
2013-05-10 17:55:00,64.0,17.0,30.23,NNE,25,4.9,5.8,16,0.00,,---,0.00,VWS V14.01,2013-05-10 23:55:00,
2013-05-10 17:56:00,64.0,17.0,30.23,North,357,3.1,5.8,16,0.00,,---,0.00,VWS V14.01,2013-05-10 23:56:00,
2013-05-10 17:58:00,63.9,16.8,30.23,NNW,342,4.0,5.8,16,0.00,,---,0.00,VWS V14.01,2013-05-10 23:58:00,
2013-05-10 17:59:00,63.9,16.8,30.23,NNE,12,5.8,5.8,16,0.00,,---,0.00,VWS V14.01,2013-05-10 23:59:00,
2013-05-10 18:00:00,63.9,16.8,30.23,NNE,12,5.8,5.8,16,0.00,,---,0.00,VWS V14.01,2013-05-11 00:00:00,
2013-05-10 18:01:00,63.7,16.7,30.23,NNE,14,4.9,7.6,16,0.00,,---,0.00,VWS V14.01,2013-05-11 00:01:00,
2013-05-10 18:03:00,63.5,16.5,30.23,North,349,3.1,7.6,16,0.00,,---,0.00,VWS V14.01,2013-05-11 00:03:00,
2013-05-10 18:05:00,63.5,16.5,30.23,North,0,2.7,7.6,16,0.00,,---,0.00,VWS V14.01,2013-05-11 00:05:00,
2013-05-10 18:06:00,63.5,16.5,30.23,NE,44,4.0,7.6,16,0.00,,---,0.00,VWS V14.01,2013-05-11 00:06:00,
2013-05-10 18:07:00,63.5,16.5,30.23,East,87,2.7,7.6,16,0.00,,---,0.00,VWS V14.01,2013-05-11 00:07:00,
2013-05-10 18:10:00,64.0,17.0,30.23,NW,326,3.1,7.6,16,0.00,,---,0.00,VWS V14.01,2013-05-11 00:10:00,
2013-05-10 18:11:00,64.2,17.1,30.23,North,9,5.4,7.6,16,0.00,,---,0.00,VWS V14.01,2013-05-11 00:11:00,
2013-05-10 18:12:00,64.2,17.1,30.23,NNE,12,5.4,7.6,16,0.00,,---,0.00,VWS V14.01,2013-05-11 00:12:00,
2013-05-10 18:15:00,64.0,17.0,30.23,NNW,329,5.4,7.6,16,0.00,,---,0.00,VWS V14.01,2013-05-11 00:15:00,
2013-05-10 18:16:00,64.0,17.0,30.23,North,353,3.1,5.4,16,0.00,,---,0.00,VWS V14.01,2013-05-11 00:16:00,
2013-05-10 18:17:00,64.0,17.0,30.23,NNW,341,3.1,5.4,16,0.00,,---,0.00,VWS V14.01,2013-05-11 00:17:00,
2013-05-10 18:20:00,64.2,17.1,30.23,NNW,341,3.1,6.3,16,0.00,,---,0.00,VWS V14.01,2013-05-11 00:20:00,
2013-05-10 18:21:00,64.2,17.1,30.23,NW,324,2.7,6.3,16,0.00,,---,0.00,VWS V14.01,2013-05-11 00:21:00,
2013-05-10 18:22:00,64.2,17.1,30.23,North,357,5.4,6.3,16,0.00,,---,0.00,VWS V14.01,2013-05-11 00:22:00,
2013-05-10 18:25:00,63.7,16.7,30.23,North,2,3.6,6.3,16,0.00,,---,0.00,VWS V14.01,2013-05-11 00:25:00,
2013-05-10 18:26:00,63.5,16.5,30.23,North,357,4.0,6.3,16,0.00,,---,0.00,VWS V14.01,2013-05-11 00:26:00,
2013-05-10 18:27:00,63.5,16.5,30.23,North,6,7.6,7.6,16,0.00,,---,0.00,VWS V14.01,2013-05-11 00:27:00,
2013-05-10 18:31:00,63.0,16.1,30.23,NNE,15,2.2,3.1,16,0.00,,---,0.00,VWS V14.01,2013-05-11 00:31:00,
2013-05-10 18:33:00,62.8,15.9,30.23,North,353,2.7,3.1,16,0.00,,---,0.00,VWS V14.01,2013-05-11 00:33:00,
2013-05-10 18:36:00,62.6,15.8,30.23,NNE,22,0.0,4.0,16,0.00,,---,0.00,VWS V14.01,2013-05-11 00:36:00,
2013-05-10 18:38:00,62.8,15.9,30.23,North,8,3.1,5.4,16,0.00,,---,0.00,VWS V14.01,2013-05-11 00:38:00,
2013-05-10 18:41:00,62.8,15.9,30.23,North,353,4.0,5.4,16,0.00,,---,0.00,VWS V14.01,2013-05-11 00:41:00,
2013-05-10 18:42:00,62.8,15.9,30.23,North,357,5.4,5.4,16,0.00,,---,0.00,VWS V14.01,2013-05-11 00:42:00,
2013-05-10 18:43:00,62.8,15.9,30.23,North,353,4.0,5.4,16,0.00,,---,0.00,VWS V14.01,2013-05-11 00:43:00,
2013-05-10 18:47:00,62.6,15.8,30.23,North,10,4.0,4.9,16,0.00,,---,0.00,VWS V14.01,2013-05-11 00:47:00,
2013-05-10 18:48:00,62.6,15.8,30.23,North,8,3.6,4.9,16,0.00,,---,0.00,VWS V14.01,2013-05-11 00:48:00,
2013-05-10 18:52:00,62.6,15.8,30.23,NNW,333,2.7,5.8,16,0.00,,---,0.00,VWS V14.01,2013-05-11 00:52:00,
2013-05-10 18:53:00,62.4,15.7,30.23,NW,314,2.7,5.8,16,0.00,,---,0.00,VWS V14.01,2013-05-11 00:53:00,
2013-05-10 18:57:00,62.2,15.5,30.23,North,10,3.6,5.8,16,0.00,,---,0.00,VWS V14.01,2013-05-11 00:57:00,
2013-05-10 18:58:00,62.2,15.5,30.23,NNE,17,4.0,5.8,16,0.00,,---,0.00,VWS V14.01,2013-05-11 00:58:00,
2013-05-10 19:02:00,61.9,15.2,30.23,North,6,4.0,5.8,16,0.00,,---,0.00,VWS V14.01,2013-05-11 01:02:00,
2013-05-10 19:03:00,61.9,15.2,30.23,NNE,14,5.8,5.8,16,0.00,,---,0.00,VWS V14.01,2013-05-11 01:03:00,
2013-05-10 19:07:00,61.5,14.9,30.23,North,1,4.0,5.8,16,0.00,,---,0.00,VWS V14.01,2013-05-11 01:07:00,
2013-05-10 19:08:00,61.5,14.9,30.23,North,1,4.0,5.8,16,0.00,,---,0.00,VWS V14.01,2013-05-11 01:08:00,
2013-05-10 19:13:00,61.3,14.8,30.23,NNW,345,2.7,5.8,16,0.00,,---,0.00,VWS V14.01,2013-05-11 01:13:00,
2013-05-10 19:14:00,61.3,14.8,30.23,NNW,345,0.0,5.8,16,0.00,,---,0.00,VWS V14.01,2013-05-11 01:14:00,
2013-05-10 19:18:00,61.0,14.5,30.23,North,4,4.0,4.0,16,0.00,,---,0.00,VWS V14.01,2013-05-11 01:18:00,
2013-05-10 19:19:00,61.0,14.5,30.23,NNE,28,3.1,4.0,16,0.00,,---,0.00,VWS V14.01,2013-05-11 01:19:00,
2013-05-10 19:20:00,61.0,14.5,30.23,NNE,20,3.1,4.0,16,0.00,,---,0.00,VWS V14.01,2013-05-11 01:20:00,
2013-05-10 19:23:00,61.0,14.5,30.23,North,0,2.7,4.0,16,0.00,,---,0.00,VWS V14.01,2013-05-11 01:23:00,
2013-05-10 19:24:00,61.0,14.5,30.23,North,3,2.7,4.0,16,0.00,,---,0.00,VWS V14.01,2013-05-11 01:24:00,
2013-05-10 19:25:00,61.0,14.5,30.23,North,3,2.2,4.0,16,0.00,,---,0.00,VWS V14.01,2013-05-11 01:25:00,
2013-05-10 19:28:00,60.8,14.4,30.23,North,0,3.1,4.0,16,0.00,,---,0.00,VWS V14.01,2013-05-11 01:28:00,
2013-05-10 19:29:00,60.8,14.4,30.23,NNE,22,2.7,4.0,16,0.00,,---,0.00,VWS V14.01,2013-05-11 01:29:00,
2013-05-10 19:31:00,60.8,14.4,30.26,North,8,3.1,4.0,16,0.00,,---,0.00,VWS V14.01,2013-05-11 01:31:00,
2013-05-10 19:33:00,60.8,14.4,30.26,North,357,3.6,4.0,16,0.00,,---,0.00,VWS V14.01,2013-05-11 01:33:00,
2013-05-10 19:34:00,60.8,14.4,30.26,NNE,14,3.6,4.0,16,0.00,,---,0.00,VWS V14.01,2013-05-11 01:34:00,
2013-05-10 19:37:00,60.6,15.6,30.26,North,8,3.1,4.0,17,0.00,,---,0.00,VWS V14.01,2013-05-11 01:37:00,
2013-05-10 19:38:00,60.6,15.6,30.26,North,0,3.6,4.0,17,0.00,,---,0.00,VWS V14.01,2013-05-11 01:38:00,
2013-05-10 19:39:00,60.6,15.6,30.26,North,357,3.1,4.0,17,0.00,,---,0.00,VWS V14.01,2013-05-11 01:39:00,
2013-05-10 19:40:00,60.4,15.4,30.26,North,357,4.9,4.9,17,0.00,,---,0.00,VWS V14.01,2013-05-11 01:40:00,
2013-05-10 19:42:00,60.4,15.4,30.26,North,357,3.1,4.9,17,0.00,,---,0.00,VWS V14.01,2013-05-11 01:42:00,
2013-05-10 19:44:00,60.4,15.4,30.26,North,0,3.1,4.9,17,0.00,,---,0.00,VWS V14.01,2013-05-11 01:44:00,
2013-05-10 19:45:00,60.4,15.4,30.26,North,0,2.7,4.9,17,0.00,,---,0.00,VWS V14.01,2013-05-11 01:45:00,
2013-05-10 19:47:00,60.3,15.3,30.26,NNW,337,2.7,3.6,17,0.00,,---,0.00,VWS V14.01,2013-05-11 01:47:00,
2013-05-10 19:49:00,60.3,15.3,30.26,North,4,3.6,4.0,17,0.00,,---,0.00,VWS V14.01,2013-05-11 01:49:00,
2013-05-10 19:50:00,60.3,15.3,30.26,North,6,3.1,4.0,17,0.00,,---,0.00,VWS V14.01,2013-05-11 01:50:00,
2013-05-10 19:51:00,60.1,15.1,30.26,North,0,3.1,4.0,17,0.00,,---,0.00,VWS V14.01,2013-05-11 01:51:00,
2013-05-10 19:53:00,60.1,15.1,30.26,North,357,2.7,4.0,17,0.00,,---,0.00,VWS V14.01,2013-05-11 01:53:00,
2013-05-10 19:54:00,60.1,15.1,30.26,North,357,3.1,4.0,17,0.00,,---,0.00,VWS V14.01,2013-05-11 01:54:00,
2013-05-10 19:55:00,59.9,15.0,30.26,North,0,3.6,4.0,17,0.00,,---,0.00,VWS V14.01,2013-05-11 01:55:00,
2013-05-10 19:56:00,59.9,15.0,30.26,North,0,3.6,4.0,17,0.00,,---,0.00,VWS V14.01,2013-05-11 01:56:00,
2013-05-10 19:58:00,59.9,15.0,30.26,NNE,16,3.1,4.0,17,0.00,,---,0.00,VWS V14.01,2013-05-11 01:58:00,
2013-05-10 19:59:00,59.7,14.9,30.26,North,6,4.9,4.9,17,0.00,,---,0.00,VWS V14.01,2013-05-11 01:59:00,
2013-05-10 20:01:00,59.7,14.9,30.26,North,7,2.7,2.7,17,0.00,,---,0.00,VWS V14.01,2013-05-11 02:01:00,
2013-05-10 20:03:00,59.5,14.7,30.26,North,349,2.7,3.6,17,0.00,,---,0.00,VWS V14.01,2013-05-11 02:03:00,
2013-05-10 20:04:00,59.5,14.7,30.26,NNW,348,0.0,3.6,17,0.00,,---,0.00,VWS V14.01,2013-05-11 02:04:00,
2013-05-10 20:06:00,59.4,14.6,30.26,NNW,348,0.0,3.6,17,0.00,,---,0.00,VWS V14.01,2013-05-11 02:06:00,
2013-05-10 20:07:00,59.4,14.6,30.26,NNW,348,2.2,3.6,17,0.00,,---,0.00,VWS V14.01,2013-05-11 02:07:00,
2013-05-10 20:08:00,59.2,14.4,30.26,North,349,0.0,3.6,17,0.00,,---,0.00,VWS V14.01,2013-05-11 02:08:00,
2013-05-10 20:10:00,59.2,14.4,30.26,North,349,0.0,3.6,17,0.00,,---,0.00,VWS V14.01,2013-05-11 02:10:00,
2013-05-10 20:11:00,59.0,14.3,30.26,North,349,2.7,3.6,17,0.00,,---,0.00,VWS V14.01,2013-05-11 02:11:00,
2013-05-10 20:12:00,59.0,14.3,30.26,North,353,3.6,3.6,17,0.00,,---,0.00,VWS V14.01,2013-05-11 02:12:00,
2013-05-10 20:13:00,58.8,14.1,30.26,North,0,2.2,3.6,17,0.00,,---,0.00,VWS V14.01,2013-05-11 02:13:00,
2013-05-10 20:15:00,58.8,14.1,30.26,North,0,2.2,3.6,17,0.00,,---,0.00,VWS V14.01,2013-05-11 02:15:00,
2013-05-10 20:16:00,58.8,14.1,30.26,North,0,0.0,2.2,17,0.00,,---,0.00,VWS V14.01,2013-05-11 02:16:00,
2013-05-10 20:17:00,58.6,14.0,30.26,North,0,2.2,2.2,17,0.00,,---,0.00,VWS V14.01,2013-05-11 02:17:00,
2013-05-10 20:19:00,58.6,14.0,30.26,North,0,0.0,2.7,17,0.00,,---,0.00,VWS V14.01,2013-05-11 02:19:00,
2013-05-10 20:20:00,58.5,16.4,30.26,North,0,0.0,2.7,19,0.00,,---,0.00,VWS V14.01,2013-05-11 02:20:00,
2013-05-10 20:21:00,58.3,16.2,30.26,North,353,3.1,3.1,19,0.00,,---,0.00,VWS V14.01,2013-05-11 02:21:00,
2013-05-10 20:22:00,58.3,16.2,30.26,North,353,2.2,3.1,19,0.00,,---,0.00,VWS V14.01,2013-05-11 02:22:00,
2013-05-10 20:24:00,58.1,16.1,30.26,North,353,2.2,3.1,19,0.00,,---,0.00,VWS V14.01,2013-05-11 02:24:00,
2013-05-10 20:25:00,58.1,16.1,30.26,North,353,0.0,3.1,19,0.00,,---,0.00,VWS V14.01,2013-05-11 02:25:00,
2013-05-10 20:27:00,58.1,16.1,30.26,North,353,0.0,3.1,19,0.00,,---,0.00,VWS V14.01,2013-05-11 02:27:00,
2013-05-10 20:28:00,57.9,15.9,30.26,North,353,2.2,3.1,19,0.00,,---,0.00,VWS V14.01,2013-05-11 02:28:00,
2013-05-10 20:29:00,57.7,15.8,30.26,North,353,2.7,3.1,19,0.00,,---,0.00,VWS V14.01,2013-05-11 02:29:00,
2013-05-10 20:31:00,57.6,15.6,30.26,North,353,0.0,0.0,19,0.00,,---,0.00,VWS V14.01,2013-05-11 02:31:00,
2013-05-10 20:32:00,57.6,15.6,30.26,North,353,0.0,0.0,19,0.00,,---,0.00,VWS V14.01,2013-05-11 02:32:00,
2013-05-10 20:33:00,57.4,15.5,30.26,North,353,0.0,2.2,19,0.00,,---,0.00,VWS V14.01,2013-05-11 02:33:00,
2013-05-10 20:35:00,57.2,15.3,30.26,North,353,0.0,2.2,19,0.00,,---,0.00,VWS V14.01,2013-05-11 02:35:00,
2013-05-10 20:36:00,57.2,15.3,30.26,North,353,0.0,2.2,19,0.00,,---,0.00,VWS V14.01,2013-05-11 02:36:00,
2013-05-10 20:37:00,57.0,16.4,30.26,North,353,0.0,2.2,20,0.00,,---,0.00,VWS V14.01,2013-05-11 02:37:00,
2013-05-10 20:38:00,57.0,16.4,30.26,North,353,0.0,2.2,20,0.00,,---,0.00,VWS V14.01,2013-05-11 02:38:00,
2013-05-10 20:40:00,56.8,16.2,30.26,North,353,2.2,2.2,20,0.00,,---,0.00,VWS V14.01,2013-05-11 02:40:00,
2013-05-10 20:41:00,56.7,18.3,30.26,North,353,0.0,2.2,22,0.00,,---,0.00,VWS V14.01,2013-05-11 02:41:00,
2013-05-10 20:42:00,56.7,18.3,30.26,North,353,0.0,2.2,22,0.00,,---,0.00,VWS V14.01,2013-05-11 02:42:00,
2013-05-10 20:43:00,56.5,18.1,30.26,North,353,0.0,2.2,22,0.00,,---,0.00,VWS V14.01,2013-05-11 02:43:00,
2013-05-10 20:45:00,56.3,18.0,30.26,North,353,0.0,0.0,22,0.00,,---,0.00,VWS V14.01,2013-05-11 02:45:00,
2013-05-10 20:46:00,56.3,18.0,30.26,North,353,0.0,0.0,22,0.00,,---,0.00,VWS V14.01,2013-05-11 02:46:00,
2013-05-10 20:47:00,56.3,18.0,30.26,North,353,2.2,2.2,22,0.00,,---,0.00,VWS V14.01,2013-05-11 02:47:00,
2013-05-10 20:48:00,56.1,17.8,30.26,North,353,0.0,2.2,22,0.00,,---,0.00,VWS V14.01,2013-05-11 02:48:00,
2013-05-10 20:49:00,56.1,17.8,30.26,North,353,0.0,2.2,22,0.00,,---,0.00,VWS V14.01,2013-05-11 02:49:00,
2013-05-10 20:50:00,56.1,17.8,30.26,North,353,0.0,2.2,22,0.00,,---,0.00,VWS V14.01,2013-05-11 02:50:00,
2013-05-10 20:51:00,55.9,17.7,30.26,North,353,0.0,2.2,22,0.00,,---,0.00,VWS V14.01,2013-05-11 02:51:00,
2013-05-10 20:52:00,55.9,17.7,30.26,North,353,0.0,2.2,22,0.00,,---,0.00,VWS V14.01,2013-05-11 02:52:00,
2013-05-10 20:54:00,55.8,17.5,30.26,North,353,0.0,2.2,22,0.00,,---,0.00,VWS V14.01,2013-05-11 02:54:00,
2013-05-10 20:55:00,55.6,17.4,30.26,North,353,0.0,2.2,22,0.00,,---,0.00,VWS V14.01,2013-05-11 02:55:00,
2013-05-10 20:57:00,55.4,17.2,30.26,North,353,0.0,2.2,22,0.00,,---,0.00,VWS V14.01,2013-05-11 02:57:00,
2013-05-10 20:58:00,55.2,18.1,30.26,North,353,0.0,2.2,23,0.00,,---,0.00,VWS V14.01,2013-05-11 02:58:00,
2013-05-10 20:59:00,55.2,20.0,30.26,North,353,0.0,2.2,25,0.00,,---,0.00,VWS V14.01,2013-05-11 02:59:00,
2013-05-10 21:01:00,54.9,19.7,30.26,North,353,0.0,0.0,25,0.00,,---,0.00,VWS V14.01,2013-05-11 03:01:00,
2013-05-10 21:02:00,54.7,19.6,30.26,North,353,0.0,0.0,25,0.00,,---,0.00,VWS V14.01,2013-05-11 03:02:00,
2013-05-10 21:03:00,54.3,19.3,30.26,North,353,0.0,0.0,25,0.00,,---,0.00,VWS V14.01,2013-05-11 03:03:00,
2013-05-10 21:04:00,54.3,19.3,30.26,North,353,0.0,0.0,25,0.00,,---,0.00,VWS V14.01,2013-05-11 03:04:00,
2013-05-10 21:06:00,54.0,19.0,30.26,North,353,0.0,0.0,25,0.00,,---,0.00,VWS V14.01,2013-05-11 03:06:00,
2013-05-10 21:07:00,53.8,18.8,30.26,North,353,0.0,0.0,25,0.00,,---,0.00,VWS V14.01,2013-05-11 03:07:00,
2013-05-10 21:08:00,53.6,19.6,30.26,North,353,0.0,0.0,26,0.00,,---,0.00,VWS V14.01,2013-05-11 03:08:00,
2013-05-10 21:09:00,53.4,19.4,30.26,North,353,0.0,0.0,26,0.00,,---,0.00,VWS V14.01,2013-05-11 03:09:00,
2013-05-10 21:10:00,53.4,19.4,30.26,North,353,0.0,0.0,26,0.00,,---,0.00,VWS V14.01,2013-05-11 03:10:00,
2013-05-10 21:11:00,53.2,19.3,30.26,North,353,0.0,0.0,26,0.00,,---,0.00,VWS V14.01,2013-05-11 03:11:00,
2013-05-10 21:12:00,53.1,19.1,30.26,North,353,0.0,2.2,26,0.00,,---,0.00,VWS V14.01,2013-05-11 03:12:00,
2013-05-10 21:14:00,52.9,19.0,30.26,North,353,0.0,2.2,26,0.00,,---,0.00,VWS V14.01,2013-05-11 03:14:00,
2013-05-10 21:15:00,52.9,19.0,30.26,North,353,0.0,2.2,26,0.00,,---,0.00,VWS V14.01,2013-05-11 03:15:00,
2013-05-10 21:16:00,52.7,18.8,30.26,North,353,0.0,0.0,26,0.00,,---,0.00,VWS V14.01,2013-05-11 03:16:00,
2013-05-10 21:17:00,52.5,18.6,30.26,North,353,0.0,0.0,26,0.00,,---,0.00,VWS V14.01,2013-05-11 03:17:00,
2013-05-10 21:19:00,52.2,19.2,30.26,North,353,0.0,0.0,27,0.00,,---,0.00,VWS V14.01,2013-05-11 03:19:00,
2013-05-10 21:20:00,52.2,19.2,30.26,North,353,0.0,0.0,27,0.00,,---,0.00,VWS V14.01,2013-05-11 03:20:00,
2013-05-10 21:22:00,51.8,18.9,30.26,North,353,0.0,0.0,27,0.00,,---,0.00,VWS V14.01,2013-05-11 03:22:00,
2013-05-10 21:23:00,51.8,18.9,30.26,North,353,0.0,0.0,27,0.00,,---,0.00,VWS V14.01,2013-05-11 03:23:00,
2013-05-10 21:24:00,51.6,18.8,30.26,North,353,0.0,2.2,27,0.00,,---,0.00,VWS V14.01,2013-05-11 03:24:00,
2013-05-10 21:25:00,51.6,18.8,30.26,North,353,0.0,2.2,27,0.00,,---,0.00,VWS V14.01,2013-05-11 03:25:00,
2013-05-10 21:27:00,51.4,18.6,30.26,North,353,0.0,2.2,27,0.00,,---,0.00,VWS V14.01,2013-05-11 03:27:00,
2013-05-10 21:28:00,51.4,18.6,30.26,North,353,0.0,2.2,27,0.00,,---,0.00,VWS V14.01,2013-05-11 03:28:00,
2013-05-10 21:29:00,51.4,18.6,30.26,North,0,2.2,2.2,27,0.00,,---,0.00,VWS V14.01,2013-05-11 03:29:00,
2013-05-10 21:30:00,51.4,19.4,30.26,North,0,2.2,2.2,28,0.00,,---,0.00,VWS V14.01,2013-05-11 03:30:00,
2013-05-10 21:31:00,51.4,19.4,30.26,North,0,2.2,2.2,28,0.00,,---,0.00,VWS V14.01,2013-05-11 03:31:00,
2013-05-10 21:32:00,51.3,19.3,30.26,North,0,2.2,2.2,28,0.00,,---,0.00,VWS V14.01,2013-05-11 03:32:00,
2013-05-10 21:33:00,51.3,19.3,30.26,North,0,0.0,2.2,28,0.00,,---,0.00,VWS V14.01,2013-05-11 03:33:00,
2013-05-10 21:35:00,51.3,20.1,30.26,SSW,194,2.7,4.0,29,0.00,,---,0.00,VWS V14.01,2013-05-11 03:35:00,
2013-05-10 21:36:00,51.1,20.0,30.26,SSW,193,3.1,4.0,29,0.00,,---,0.00,VWS V14.01,2013-05-11 03:36:00,
2013-05-10 21:37:00,51.1,20.0,30.26,South,190,3.1,4.0,29,0.00,,---,0.00,VWS V14.01,2013-05-11 03:37:00,
2013-05-10 21:38:00,51.3,20.1,30.26,South,190,0.0,4.0,29,0.00,,---,0.00,VWS V14.01,2013-05-11 03:38:00,
2013-05-10 21:40:00,51.3,20.1,30.26,SSW,192,2.7,4.0,29,0.00,,---,0.00,VWS V14.01,2013-05-11 03:40:00,
2013-05-10 21:41:00,51.3,20.9,30.26,SSW,192,2.7,4.0,30,0.00,,---,0.00,VWS V14.01,2013-05-11 03:41:00,
2013-05-10 21:43:00,51.3,20.9,30.26,South,184,2.7,4.0,30,0.00,,---,0.00,VWS V14.01,2013-05-11 03:43:00,
2013-05-10 21:46:00,51.1,20.8,30.26,South,188,3.1,4.0,30,0.00,,---,0.00,VWS V14.01,2013-05-11 03:46:00,
2013-05-10 21:48:00,51.1,20.8,30.26,South,187,0.0,4.0,30,0.00,,---,0.00,VWS V14.01,2013-05-11 03:48:00,
2013-05-10 21:51:00,51.1,20.8,30.26,South,187,2.7,4.0,30,0.00,,---,0.00,VWS V14.01,2013-05-11 03:51:00,
2013-05-10 21:53:00,50.9,20.6,30.26,South,189,3.6,4.0,30,0.00,,---,0.00,VWS V14.01,2013-05-11 03:53:00,
2013-05-10 21:54:00,50.9,20.6,30.26,South,190,3.1,4.0,30,0.00,,---,0.00,VWS V14.01,2013-05-11 03:54:00,
2013-05-10 21:56:00,50.7,20.4,30.26,South,187,4.0,4.0,30,0.00,,---,0.00,VWS V14.01,2013-05-11 03:56:00,
2013-05-10 21:58:00,50.7,21.2,30.26,SSW,198,3.6,4.9,31,0.00,,---,0.00,VWS V14.01,2013-05-11 03:58:00,
2013-05-10 21:59:00,50.7,21.2,30.26,SSW,208,4.0,4.9,31,0.00,,---,0.00,VWS V14.01,2013-05-11 03:59:00,
2013-05-10 22:01:00,50.5,21.0,30.26,SSW,207,2.7,2.7,31,0.00,,---,0.00,VWS V14.01,2013-05-11 04:01:00,
2013-05-10 22:06:00,50.2,20.7,30.26,SSW,193,3.6,7.6,31,0.00,,---,0.00,VWS V14.01,2013-05-11 04:06:00,
2013-05-10 22:11:00,49.8,21.2,30.26,SSW,206,0.0,7.6,32,0.00,,---,0.00,VWS V14.01,2013-05-11 04:11:00,
2013-05-10 22:16:00,49.5,21.6,30.29,SSW,202,4.0,4.0,33,0.00,,---,0.00,VWS V14.01,2013-05-11 04:16:00,
2013-05-10 22:17:00,49.3,21.4,30.29,SSW,192,4.0,4.0,33,0.00,,---,0.00,VWS V14.01,2013-05-11 04:17:00,
2013-05-10 22:21:00,49.5,21.6,30.29,SSW,199,5.8,5.8,33,0.00,,---,0.00,VWS V14.01,2013-05-11 04:21:00,
2013-05-10 22:22:00,49.5,21.6,30.29,SSW,197,4.5,5.8,33,0.00,,---,0.00,VWS V14.01,2013-05-11 04:22:00,
2013-05-10 22:27:00,49.5,21.6,30.29,SSW,198,5.4,6.3,33,0.00,,---,0.00,VWS V14.01,2013-05-11 04:27:00,
2013-05-10 22:32:00,49.5,21.6,30.29,SSW,196,3.1,5.4,33,0.00,,---,0.00,VWS V14.01,2013-05-11 04:32:00,
2013-05-10 22:33:00,49.3,22.1,30.29,South,185,2.7,5.4,34,0.00,,---,0.00,VWS V14.01,2013-05-11 04:33:00,
2013-05-10 22:37:00,48.9,21.8,30.29,SSW,207,4.0,5.4,34,0.00,,---,0.00,VWS V14.01,2013-05-11 04:37:00,
2013-05-10 22:39:00,48.6,22.2,30.29,SSW,200,4.0,6.3,35,0.00,,---,0.00,VWS V14.01,2013-05-11 04:39:00,
2013-05-10 22:42:00,48.4,22.0,30.29,SSW,197,2.7,6.3,35,0.00,,---,0.00,VWS V14.01,2013-05-11 04:42:00,
2013-05-10 22:43:00,48.2,22.5,30.29,SSW,199,3.6,6.3,36,0.00,,---,0.00,VWS V14.01,2013-05-11 04:43:00,
2013-05-10 22:44:00,48.2,22.5,30.29,SSW,206,3.6,6.3,36,0.00,,---,0.00,VWS V14.01,2013-05-11 04:44:00,
2013-05-10 22:47:00,47.8,22.9,30.29,SSW,202,3.6,5.4,37,0.00,,---,0.00,VWS V14.01,2013-05-11 04:47:00,
2013-05-10 22:48:00,47.8,22.9,30.29,SSW,201,5.4,5.4,37,0.00,,---,0.00,VWS V14.01,2013-05-11 04:48:00,
2013-05-10 22:49:00,47.8,22.9,30.29,SSW,205,4.0,5.4,37,0.00,,---,0.00,VWS V14.01,2013-05-11 04:49:00,
2013-05-10 22:52:00,47.8,22.9,30.29,SSW,200,4.0,5.8,37,0.00,,---,0.00,VWS V14.01,2013-05-11 04:52:00,
2013-05-10 22:53:00,47.8,22.9,30.29,SSW,195,4.0,5.8,37,0.00,,---,0.00,VWS V14.01,2013-05-11 04:53:00,
2013-05-10 22:54:00,47.8,22.9,30.29,SSW,197,5.4,5.8,37,0.00,,---,0.00,VWS V14.01,2013-05-11 04:54:00,
2013-05-10 22:57:00,47.8,22.9,30.29,SSW,200,4.9,5.8,37,0.00,,---,0.00,VWS V14.01,2013-05-11 04:57:00,
2013-05-10 22:58:00,47.8,22.9,30.29,SSW,198,4.0,5.8,37,0.00,,---,0.00,VWS V14.01,2013-05-11 04:58:00,
2013-05-10 22:59:00,47.8,22.9,30.29,SSW,202,3.6,5.8,37,0.00,,---,0.00,VWS V14.01,2013-05-11 04:59:00,
2013-05-10 23:02:00,47.8,22.9,30.29,SSW,198,3.6,4.5,37,0.00,,---,0.00,VWS V14.01,2013-05-11 05:02:00,
2013-05-10 23:03:00,47.8,22.9,30.29,SSW,201,4.0,4.5,37,0.00,,---,0.00,VWS V14.01,2013-05-11 05:03:00,
2013-05-10 23:04:00,47.8,22.9,30.29,South,189,4.0,4.5,37,0.00,,---,0.00,VWS V14.01,2013-05-11 05:04:00,
2013-05-10 23:08:00,47.5,22.5,30.29,SSW,196,5.4,6.3,37,0.00,,---,0.00,VWS V14.01,2013-05-11 05:08:00,
2013-05-10 23:09:00,47.5,22.5,30.29,SSW,206,4.0,6.3,37,0.00,,---,0.00,VWS V14.01,2013-05-11 05:09:00,
2013-05-10 23:10:00,47.3,22.4,30.29,SSW,210,4.9,6.3,37,0.00,,---,0.00,VWS V14.01,2013-05-11 05:10:00,
2013-05-10 23:13:00,47.3,22.4,30.29,SSW,193,4.5,6.3,37,0.00,,---,0.00,VWS V14.01,2013-05-11 05:13:00,
2013-05-10 23:14:00,47.3,22.4,30.29,SSW,200,4.9,6.3,37,0.00,,---,0.00,VWS V14.01,2013-05-11 05:14:00,
2013-05-10 23:15:00,47.3,22.4,30.29,SSW,200,4.9,6.3,37,0.00,,---,0.00,VWS V14.01,2013-05-11 05:15:00,
2013-05-10 23:16:00,47.3,22.4,30.29,SSW,195,5.8,7.6,37,0.00,,---,0.00,VWS V14.01,2013-05-11 05:16:00,
2013-05-10 23:18:00,47.3,22.4,30.29,SSW,192,4.9,7.6,37,0.00,,---,0.00,VWS V14.01,2013-05-11 05:18:00,
2013-05-10 23:19:00,47.3,22.4,30.29,SSW,192,3.6,7.6,37,0.00,,---,0.00,VWS V14.01,2013-05-11 05:19:00,
2013-05-10 23:20:00,47.3,22.4,30.29,South,185,4.9,7.6,37,0.00,,---,0.00,VWS V14.01,2013-05-11 05:20:00,
2013-05-10 23:21:00,47.3,22.4,30.29,South,191,4.0,7.6,37,0.00,,---,0.00,VWS V14.01,2013-05-11 05:21:00,
2013-05-10 23:23:00,47.3,22.4,30.29,SSW,196,4.0,7.6,37,0.00,,---,0.00,VWS V14.01,2013-05-11 05:23:00,
2013-05-10 23:25:00,47.3,22.4,30.29,SSW,208,4.0,7.6,37,0.00,,---,0.00,VWS V14.01,2013-05-11 05:25:00,
2013-05-10 23:27:00,47.1,22.2,30.29,SSW,194,3.1,7.6,37,0.00,,---,0.00,VWS V14.01,2013-05-11 05:27:00,
2013-05-10 23:28:00,47.1,22.2,30.29,South,185,3.6,7.6,37,0.00,,---,0.00,VWS V14.01,2013-05-11 05:28:00,
2013-05-10 23:30:00,47.1,22.2,30.29,South,189,2.2,7.6,37,0.00,,---,0.00,VWS V14.01,2013-05-11 05:30:00,
2013-05-10 23:32:00,47.1,22.2,30.29,South,189,0.0,2.2,37,0.00,,---,0.00,VWS V14.01,2013-05-11 05:32:00,
2013-05-10 23:33:00,46.9,22.0,30.29,South,189,3.6,3.6,37,0.00,,---,0.00,VWS V14.01,2013-05-11 05:33:00,
2013-05-10 23:34:00,46.9,22.0,30.29,South,189,2.7,3.6,37,0.00,,---,0.00,VWS V14.01,2013-05-11 05:34:00,
2013-05-10 23:35:00,46.9,22.0,30.29,SSW,192,3.1,3.6,37,0.00,,---,0.00,VWS V14.01,2013-05-11 05:35:00,
2013-05-10 23:36:00,46.8,21.9,30.29,SSW,196,3.6,3.6,37,0.00,,---,0.00,VWS V14.01,2013-05-11 05:36:00,
2013-05-10 23:37:00,46.9,22.0,30.29,SSW,195,2.7,4.0,37,0.00,,---,0.00,VWS V14.01,2013-05-11 05:37:00,
2013-05-10 23:39:00,46.9,22.0,30.29,SSW,200,3.6,4.9,37,0.00,,---,0.00,VWS V14.01,2013-05-11 05:39:00,
2013-05-10 23:40:00,46.9,22.0,30.29,SSW,196,4.0,4.9,37,0.00,,---,0.00,VWS V14.01,2013-05-11 05:40:00,
2013-05-10 23:41:00,46.9,22.0,30.29,SSW,204,6.3,6.3,37,0.00,,---,0.00,VWS V14.01,2013-05-11 05:41:00,
2013-05-10 23:42:00,46.9,22.0,30.29,SSW,205,5.8,6.3,37,0.00,,---,0.00,VWS V14.01,2013-05-11 05:42:00,
2013-05-10 23:44:00,47.1,22.2,30.29,SSW,194,5.8,7.6,37,0.00,,---,0.00,VWS V14.01,2013-05-11 05:44:00,
2013-05-10 23:45:00,47.1,22.2,30.29,SSW,197,5.8,6.3,37,0.00,,---,0.00,VWS V14.01,2013-05-11 05:45:00,
2013-05-10 23:46:00,47.1,22.8,30.29,SSW,196,5.8,6.3,38,0.00,,---,0.00,VWS V14.01,2013-05-11 05:46:00,
2013-05-10 23:47:00,46.9,22.7,30.29,SSW,196,5.8,6.3,38,0.00,,---,0.00,VWS V14.01,2013-05-11 05:47:00,
2013-05-10 23:49:00,46.9,22.7,30.29,South,187,5.4,7.6,38,0.00,,---,0.00,VWS V14.01,2013-05-11 05:49:00,
2013-05-10 23:50:00,46.8,22.5,30.29,SSW,193,3.6,7.6,38,0.00,,---,0.00,VWS V14.01,2013-05-11 05:50:00,
2013-05-10 23:51:00,46.8,22.5,30.29,SSW,197,4.9,7.6,38,0.00,,---,0.00,VWS V14.01,2013-05-11 05:51:00,
2013-05-10 23:52:00,46.6,22.4,30.29,SSW,196,3.6,7.6,38,0.00,,---,0.00,VWS V14.01,2013-05-11 05:52:00,
2013-05-10 23:54:00,46.4,22.2,30.29,SSW,197,6.3,7.6,38,0.00,,---,0.00,VWS V14.01,2013-05-11 05:54:00,
2013-05-10 23:55:00,46.2,22.0,30.29,SSW,202,3.6,7.6,38,0.00,,---,0.00,VWS V14.01,2013-05-11 05:55:00,
2013-05-10 23:56:00,46.2,22.0,30.29,SSW,192,3.6,7.6,38,0.00,,---,0.00,VWS V14.01,2013-05-11 05:56:00,
2013-05-10 23:58:00,46.0,21.9,30.29,South,185,2.7,7.6,38,0.00,,---,0.00,VWS V14.01,2013-05-11 05:58:00,